FW4143 Weather Reports


time (UTC)temp
C
wind
direction
speed
KPH
gust
KPH
rain 1hr
cm
rain 24hr
cm
rain mn
cm
humidity
%
barometer
mb
20260509224604 31 236 3.2 6.4 0.00 2.01 2.01 51 1008.2
20260509224504 31 235 3.2 8.0 0.00 2.01 2.01 51 1008.2
20260509224404 31 234 3.2 8.0 0.00 2.01 2.01 51 1008.2
20260509224304 31 233 3.2 8.0 0.00 2.01 2.01 51 1008.2
20260509224204 31 231 3.2 8.0 0.00 2.01 2.01 51 1008.2
20260509224104 31 230 4.8 9.7 0.00 2.01 2.01 50 1008.2
20260509224004 31 228 4.8 9.7 0.00 2.01 2.01 50 1008.3
20260509223904 31 226 4.8 9.7 0.00 2.01 2.01 50 1008.3
20260509223804 31 223 3.2 9.7 0.00 2.01 2.01 51 1008.3
20260509223704 31 221 3.2 9.7 0.00 2.01 2.01 51 1008.3
20260509223604 31 218 3.2 9.7 0.00 2.01 2.01 51 1008.3
20260509223504 31 215 3.2 9.7 0.00 2.01 2.01 51 1008.3
20260509223404 31 214 3.2 9.7 0.00 2.01 2.01 50 1008.3
20260509223325 31 214 3.2 9.7 0.00 2.01 2.01 51 1008.3
20260509223204 31 213 3.2 9.7 0.00 2.01 2.01 50 1008.3
20260509223104 31 219 3.2 11.3 0.00 2.01 2.01 50 1008.3
20260509223004 31 224 3.2 11.3 0.00 2.01 2.01 50 1008.2
20260509222904 31 228 3.2 11.3 0.00 2.01 2.01 51 1008.3
20260509222804 31 235 3.2 11.3 0.00 2.01 2.01 51 1008.2
20260509222704 31 244 3.2 11.3 0.00 2.01 2.01 50 1008.2
20260509222625 31 248 3.2 11.3 0.00 2.01 2.01 51 1008.2
20260509222504 31 268 3.2 11.3 0.00 2.01 2.01 50 1008.2
20260509222404 31 285 3.2 11.3 0.00 2.01 2.01 50 1008.2
20260509222307 31 305 3.2 11.3 0.00 2.01 2.01 50 1008.2
20260509222204 31 325 3.2 11.3 0.00 2.01 2.01 50 1008.2
20260509222104 31 343 3.2 8.0 0.00 2.01 2.01 51 1008.2
20260509222004 31 351 3.2 8.0 0.00 2.01 2.01 50 1008.2
20260509221904 31 357 3.2 8.0 0.00 2.01 2.01 51 1008.2
20260509221804 31 3 3.2 8.0 0.00 2.01 2.01 51 1008.1
20260509221725 31 6 3.2 8.0 0.00 2.01 2.01 51 1008.2
20260509221604 31 8 3.2 8.0 0.00 2.01 2.01 50 1008.1
20260509221504 31 11 3.2 8.0 0.00 2.01 2.01 50 1008.1
20260509221404 31 16 3.2 8.0 0.00 2.01 2.01 50 1008.1
20260509221304 31 20 3.2 8.0 0.00 2.01 2.01 50 1008.1
20260509221225 31 25 3.2 8.0 0.00 2.01 2.01 51 1008.1
20260509221104 31 26 3.2 8.0 0.00 2.01 2.01 50 1008.1
20260509221004 31 27 3.2 8.0 0.00 2.01 2.01 50 1008.1
20260509220925 31 27 3.2 8.0 0.00 2.01 2.01 50 1008.1
20260509220804 31 28 3.2 8.0 0.00 2.01 2.01 50 1008.1
20260509220704 31 28 3.2 6.4 0.00 2.01 2.01 50 1008.1
20260509220604 31 28 3.2 6.4 0.00 2.01 2.01 49 1008.0
20260509220504 31 28 3.2 6.4 0.00 2.01 2.01 49 1008.1
20260509220404 31 28 3.2 8.0 0.00 2.01 2.01 49 1008.1
20260509220325 31 29 3.2 8.0 0.00 2.01 2.01 49 1008.1
20260509220204 31 29 3.2 8.0 0.00 2.01 2.01 49 1008.2
20260509220104 31 31 3.2 9.7 0.00 2.01 2.01 49 1008.2
20260509220004 31 32 3.2 9.7 0.00 2.01 2.01 49 1008.2
20260509215925 31 33 3.2 9.7 0.00 2.01 2.01 49 1008.2
20260509215825 31 36 3.2 9.7 0.00 2.01 2.01 49 1008.2
20260509215704 31 40 3.2 9.7 0.00 2.01 2.01 49 1008.2
20260509215604 31 42 3.2 9.7 0.00 2.01 2.01 49 1008.3
20260509215504 31 46 4.8 9.7 0.00 2.01 2.01 48 1008.3
20260509215425 31 48 4.8 9.7 0.00 2.01 2.01 49 1008.2
20260509215306 31 53 4.8 9.7 0.00 2.01 2.01 49 1008.2
20260509215204 31 56 3.2 9.7 0.00 2.01 2.01 49 1008.2
20260509215104 31 58 3.2 8.0 0.00 2.01 2.01 49 1008.2
20260509215004 31 58 3.2 8.0 0.00 2.01 2.01 49 1008.3
20260509214904 31 58 3.2 8.0 0.00 2.01 2.01 49 1008.3
20260509214804 31 57 3.2 8.0 0.00 2.01 2.01 49 1008.3
20260509214704 31 57 3.2 8.0 0.00 2.01 2.01 49 1008.3
20260509214604 31 57 3.2 8.0 0.00 2.01 2.01 48 1008.3
20260509214504 31 57 3.2 8.0 0.00 2.01 2.01 47 1008.3
20260509214425 31 57 3.2 8.0 0.00 2.01 2.01 49 1008.3
20260509214304 31 57 3.2 6.4 0.00 2.01 2.01 49 1008.3
20260509214204 31 57 3.2 6.4 0.00 2.01 2.01 48 1008.3
20260509214104 31 57 3.2 6.4 0.00 2.01 2.01 48 1008.3
20260509214004 31 57 3.2 6.4 0.00 2.01 2.01 47 1008.3
20260509213904 31 57 3.2 4.8 0.00 2.01 2.01 48 1008.4
20260509213804 31 57 3.2 4.8 0.00 2.01 2.01 47 1008.4
20260509213704 31 57 3.2 4.8 0.00 2.01 2.01 47 1008.4
20260509213604 31 57 3.2 6.4 0.00 2.01 2.01 48 1008.4
20260509213504 31 57 3.2 6.4 0.00 2.01 2.01 48 1008.4
20260509213404 30 56 3.2 8.0 0.00 2.01 2.01 48 1008.5
20260509213304 30 50 3.2 9.7 0.00 2.01 2.01 49 1008.5
20260509213204 30 46 3.2 9.7 0.00 2.01 2.01 48 1008.5
20260509213125 30 37 3.2 9.7 0.00 2.01 2.01 48 1008.5
20260509213004 30 4 3.2 9.7 0.00 2.01 2.01 47 1008.5
20260509212904 31 338 3.2 9.7 0.00 2.01 2.01 47 1008.5
20260509212804 31 318 3.2 9.7 0.00 2.01 2.01 48 1008.6
20260509212704 31 312 3.2 9.7 0.00 2.01 2.01 47 1008.6
20260509212604 31 303 4.8 9.7 0.00 2.01 2.01 47 1008.6
20260509212504 30 302 4.8 9.7 0.00 2.01 2.01 47 1008.6
20260509212404 30 297 4.8 9.7 0.00 2.01 2.01 47 1008.7
20260509212306 30 301 4.8 9.7 0.00 2.01 2.01 47 1008.6
20260509212204 30 308 4.8 9.7 0.00 2.01 2.01 47 1008.7
20260509212104 30 322 4.8 9.7 0.00 2.01 2.01 46 1008.7
20260509212004 30 328 3.2 9.7 0.00 2.01 2.01 46 1008.7
20260509211904 30 331 3.2 9.7 0.00 2.01 2.01 46 1008.7
20260509211804 30 333 3.2 9.7 0.00 2.01 2.01 46 1008.7
20260509211704 30 344 3.2 9.7 0.00 2.01 2.01 45 1008.7
20260509211604 30 352 3.2 9.7 0.00 2.01 2.01 45 1008.7
20260509211504 30 359 3.2 9.7 0.00 2.01 2.01 45 1008.7
20260509211425 30 3 3.2 9.7 0.00 2.01 2.01 44 1008.7
20260509211304 30 10 3.2 9.7 0.00 2.01 2.01 44 1008.7
20260509211204 30 343 3.2 9.7 0.00 2.01 2.01 43 1008.7
20260509211104 30 295 3.2 9.7 0.00 2.01 2.01 43 1008.7
20260509211004 30 287 3.2 9.7 0.00 2.01 2.01 42 1008.7
20260509210904 30 270 3.2 9.7 0.00 2.01 2.01 42 1008.8
20260509210804 30 267 3.2 9.7 0.00 2.01 2.01 42 1008.8
20260509210704 30 258 3.2 9.7 0.00 2.01 2.01 42 1008.8
20260509210604 30 255 1.6 9.7 0.00 2.01 2.01 42 1008.9
20260509210504 29 246 1.6 9.7 0.00 2.01 2.01 42 1008.9
20260509210404 29 245 1.6 9.7 0.00 2.01 2.01 42 1009.0
20260509210304 28 243 1.6 9.7 0.00 2.01 2.01 42 1009.0
20260509210225 28 242 1.6 9.7 0.00 2.01 2.01 41 1009.0
20260509210104 28 241 1.6 9.7 0.00 2.01 2.01 40 1009.0
20260509210004 28 240 1.6 9.7 0.03 2.01 2.01 32 1008.9
20260509205904 28 237 1.6 9.7 0.03 2.01 2.01 32 1009.0
20260509205804 27 232 1.6 9.7 0.03 2.01 2.01 17 1008.9
20260509205725 27 231 1.6 9.7 0.03 2.01 2.01 17 1008.9
20260509205604 27 231 1.6 9.7 0.03 2.01 2.01 17 1008.9
20260509205504 27 231 1.6 9.7 0.05 2.01 2.01 4 1008.9
20260509205404 26 231 1.6 9.7 0.08 2.01 2.01 1 1008.9
20260509205325 26 230 1.6 9.7 0.08 2.01 2.01 1 1008.9
20260509205204 25 229 1.6 9.7 0.08 2.01 2.01 1 1008.9
20260509205104 25 228 1.6 9.7 0.13 2.01 2.01 1 1008.9
20260509205003 24 226 1.6 9.7 0.20 2.01 2.01 1 1009.0
20260509204904 24 217 0.0 9.7 0.30 2.01 2.01 1 1009.0
20260509204804 23 207 0.0 3.2 0.38 2.01 2.01 1 1009.0
20260509204704 23 0 0.0 0.0 0.41 2.01 2.01 1 1009.0
20260509204604 22 0 0.0 0.0 0.43 2.01 2.01 1 1009.0
20260509204504 22 0 0.0 0.0 0.46 2.01 2.01 1 1009.1
20260509204404 22 0 0.0 0.0 0.48 2.01 2.01 1 1009.1
20260509204304 22 0 0.0 0.0 0.64 2.01 2.01 1 1009.1
20260509204225 22 0 0.0 0.0 0.69 2.01 2.01 1 1009.1
20260509204125 23 0 0.0 0.0 0.74 2.01 2.01 1 1009.1
20260509204004 23 0 0.0 0.0 0.81 2.01 2.01 1 1009.1
20260509203904 23 0 0.0 0.0 0.89 2.01 2.01 1 1009.1
20260509203804 23 0 0.0 0.0 0.99 2.01 2.01 1 1009.1
20260509203704 23 0 0.0 0.0 1.09 2.01 2.01 1 1009.1
20260509203625 22 0 0.0 0.0 1.19 2.01 2.01 1 1009.1
20260509203504 23 0 0.0 0.0 1.30 2.01 2.01 1 1009.1
20260509203404 23 0 0.0 0.0 1.35 2.01 2.01 1 1009.2
20260509203304 23 0 0.0 0.0 1.50 2.01 2.01 1 1009.2
20260509203204 23 0 0.0 0.0 1.63 2.01 2.01 1 1009.2
20260509203104 23 0 0.0 0.0 1.65 2.01 2.01 1 1009.2
20260509203004 23 0 0.0 0.0 1.68 2.01 2.01 1 1009.2
20260509202904 23 0 0.0 0.0 1.73 2.01 2.01 1 1009.2
20260509202804 23 124 0.0 3.2 1.75 2.01 2.01 1 1009.2
20260509202704 23 121 1.6 6.4 1.83 2.01 2.01 1 1009.2
20260509202604 23 113 1.6 8.0 1.88 2.01 2.01 1 1009.2
20260509202503 23 107 1.6 8.0 1.88 2.01 2.01 1 1009.2
20260509202404 22 102 1.6 8.0 1.91 2.01 2.01 1 1009.2
20260509202306 22 102 1.6 8.0 1.91 2.01 2.01 1 1009.2
20260509202204 22 102 1.6 8.0 1.93 2.01 2.01 1 1009.1
20260509202104 21 100 3.2 8.0 1.96 2.01 2.01 1 1009.1
20260509202004 21 97 3.2 8.0 1.98 2.01 2.01 1 1009.1
20260509201904 21 95 3.2 8.0 1.98 2.01 2.01 1 1009.2
20260509201804 21 92 3.2 8.0 2.01 2.01 2.01 1 1009.2
20260509201725 22 88 3.2 8.0 2.01 2.01 2.01 1 1009.2
20260509201604 21 82 3.2 6.4 2.01 2.01 2.01 1 1009.2
20260509201504 21 81 3.2 4.8 2.01 2.01 2.01 1 1009.2
20260509201404 21 80 3.2 4.8 2.01 2.01 2.01 1 1009.3
20260509201304 21 79 3.2 4.8 2.01 2.01 2.01 1 1009.3
20260509201204 21 79 3.2 6.4 2.01 2.01 2.01 1 1009.4
20260509201125 20 78 3.2 6.4 2.01 2.01 2.01 1 1009.4
20260509201004 20 76 3.2 8.0 2.01 2.01 2.01 1 1009.5
20260509200904 20 74 3.2 8.0 2.01 2.01 2.01 1 1009.5
20260509200804 20 72 3.2 8.0 2.01 2.01 2.01 1 1009.6
20260509200725 20 70 3.2 8.0 2.01 2.01 2.01 1 1009.7
20260509200625 19 67 4.8 9.7 2.01 2.01 2.01 1 1009.8
20260509200504 19 56 4.8 11.3 2.01 2.01 2.01 1 1009.9
20260509200404 19 39 4.8 14.5 2.01 2.01 2.01 1 1010.0
20260509200304 19 25 4.8 14.5 2.01 2.01 2.01 1 1010.1
20260509200204 19 10 4.8 14.5 2.01 2.01 2.01 1 1010.1
20260509200104 19 343 6.4 14.5 2.01 2.01 2.01 1 1010.1
20260509200025 19 327 6.4 14.5 1.98 1.98 1.98 1 1010.2
20260509195904 19 314 6.4 14.5 1.98 1.98 1.98 1 1010.2
20260509195804 19 315 6.4 14.5 1.98 1.98 1.98 1 1010.3
20260509195704 19 314 6.4 14.5 1.98 1.98 1.98 1 1010.3
20260509195625 19 313 6.4 14.5 1.98 1.98 1.98 1 1010.4
20260509195504 19 310 4.8 14.5 1.96 1.96 1.96 1 1010.5
20260509195425 19 317 4.8 14.5 1.93 1.93 1.96 1 1010.7
20260509195306 19 344 4.8 12.9 1.93 1.93 1.93 1 1010.8
20260509195204 19 26 4.8 12.9 1.93 1.93 1.93 1 1011.0
20260509195125 19 37 3.2 9.7 1.88 1.88 1.91 1 1011.1
20260509195004 19 53 3.2 6.4 1.80 1.80 1.80 1 1011.3
20260509194925 19 55 4.8 9.7 1.70 1.70 1.75 1 1011.3
20260509194804 19 52 4.8 16.1 1.63 1.63 1.63 1 1011.3
20260509194704 19 49 6.4 20.9 1.60 1.60 1.60 1 1011.3
20260509194604 19 49 8.0 25.7 1.57 1.57 1.57 1 1011.3
20260509194504 19 52 9.7 27.4 1.55 1.55 1.57 1 1011.3
20260509194404 20 52 11.3 27.4 1.52 1.52 1.52 1 1011.2
20260509194304 20 54 11.3 27.4 1.37 1.37 1.37 1 1011.2
20260509194204 20 54 11.3 27.4 1.32 1.32 1.32 1 1011.0
20260509194125 20 55 12.9 27.4 1.27 1.27 1.30 1 1011.0
20260509194004 20 56 12.9 27.4 1.19 1.19 1.19 1 1011.1
20260509193904 20 57 12.9 27.4 1.12 1.12 1.12 1 1011.1
20260509193804 21 60 12.9 27.4 1.02 1.02 1.02 1 1011.2
20260509193704 21 62 11.3 27.4 0.91 0.91 0.91 1 1011.4
20260509193604 22 65 9.7 27.4 0.81 0.81 0.84 1 1011.4
20260509193504 22 66 9.7 24.1 0.71 0.71 0.76 33 1011.4
20260509193404 23 67 8.0 24.1 0.66 0.66 0.66 33 1011.2
20260509193304 24 66 8.0 14.5 0.51 0.51 0.51 33 1011.1
20260509193204 24 67 8.0 14.5 0.38 0.38 0.41 37 1011.0
20260509193104 24 70 8.0 14.5 0.36 0.36 0.36 36 1010.9
20260509193004 25 68 9.7 24.1 0.33 0.33 0.33 36 1010.8
20260509192904 25 66 9.7 27.4 0.28 0.28 0.28 37 1010.7
20260509192804 25 65 11.3 30.6 0.25 0.25 0.25 38 1010.6
20260509192704 25 59 11.3 30.6 0.18 0.18 0.18 40 1010.6
20260509192625 25 57 11.3 30.6 0.13 0.13 0.15 40 1010.4
20260509192504 26 55 11.3 30.6 0.13 0.13 0.13 40 1010.4
20260509192404 26 56 11.3 30.6 0.10 0.10 0.10 40 1010.3
20260509192306 26 57 9.7 30.6 0.10 0.10 0.10 42 1010.2
20260509192204 27 55 9.7 30.6 0.08 0.08 0.08 42 1010.2
20260509192104 27 51 9.7 30.6 0.05 0.05 0.05 42 1010.3
20260509192004 27 43 8.0 30.6 0.03 0.03 0.03 40 1010.2
20260509191904 28 32 8.0 30.6 0.03 0.03 0.03 40 1010.1
20260509191804 28 12 6.4 19.3 0.00 0.00 0.00 39 1010.1
20260509191704 28 2 6.4 16.1 0.00 0.00 0.00 36 1010.0
20260509191604 28 353 6.4 16.1 0.00 0.00 0.00 36 1009.9
20260509191504 28 341 6.4 16.1 0.00 0.00 0.00 37 1009.7
20260509191404 28 332 6.4 16.1 0.00 0.00 0.00 38 1009.6
20260509191304 28 325 6.4 16.1 0.00 0.00 0.00 38 1009.6
20260509191204 28 319 6.4 16.1 0.00 0.00 0.00 39 1009.6
20260509191104 28 315 6.4 16.1 0.00 0.00 0.00 40 1009.5
20260509191004 28 313 4.8 16.1 0.00 0.00 0.00 41 1009.6
20260509190904 29 311 4.8 16.1 0.00 0.00 0.00 42 1009.5
20260509190804 29 304 4.8 16.1 0.00 0.00 0.00 42 1009.6
20260509190704 29 304 4.8 16.1 0.00 0.00 0.00 42 1009.6
20260509190604 29 299 4.8 11.3 0.00 0.00 0.00 42 1009.7
20260509190504 29 297 4.8 11.3 0.00 0.00 0.00 42 1009.7
20260509190404 30 302 4.8 11.3 0.00 0.00 0.00 42 1009.6
20260509190304 30 316 4.8 11.3 0.00 0.00 0.00 42 1009.6
20260509190204 30 329 4.8 11.3 0.00 0.00 0.00 43 1009.6
20260509190104 30 340 4.8 11.3 0.00 0.00 0.00 43 1009.6
20260509190004 30 349 4.8 11.3 0.00 0.00 0.00 43 1009.5
20260509185904 30 353 4.8 11.3 0.00 0.00 0.00 44 1009.5
20260509185825 30 348 4.8 11.3 0.00 0.00 0.00 44 1009.5
20260509185704 30 349 4.8 12.9 0.00 0.00 0.00 44 1009.6
20260509185604 30 360 4.8 12.9 0.00 0.00 0.00 44 1009.6
20260509185504 30 13 4.8 12.9 0.00 0.00 0.00 44 1009.6
20260509185404 30 21 6.4 12.9 0.00 0.00 0.00 44 1009.7
20260509185306 30 20 4.8 12.9 0.00 0.00 0.00 44 1009.7
20260509185204 30 13 4.8 12.9 0.00 0.00 0.00 44 1009.7
20260509185104 30 5 6.4 12.9 0.00 0.00 0.00 44 1009.8
20260509185025 30 5 6.4 12.9 0.00 0.00 0.00 44 1009.8
20260509184904 30 11 6.4 14.5 0.00 0.00 0.00 44 1009.9
20260509184804 31 19 6.4 19.3 0.00 0.00 0.00 44 1009.9
20260509184704 31 27 6.4 19.3 0.00 0.00 0.00 44 1009.9
20260509184604 31 29 8.0 19.3 0.00 0.00 0.00 44 1009.9
20260509184504 31 29 8.0 19.3 0.00 0.00 0.00 44 1009.9
20260509184404 31 25 8.0 19.3 0.00 0.00 0.00 44 1009.9
20260509184304 31 26 8.0 19.3 0.00 0.00 0.00 44 1009.9
20260509184204 31 34 8.0 19.3 0.00 0.00 0.00 43 1010.0
20260509184104 31 38 9.7 19.3 0.00 0.00 0.00 43 1010.0
20260509184004 31 41 8.0 19.3 0.00 0.00 0.00 43 1010.0
20260509183925 31 40 8.0 19.3 0.00 0.00 0.00 43 1010.0
20260509183804 31 42 9.7 19.3 0.00 0.00 0.00 43 1009.9
20260509183704 31 41 9.7 19.3 0.00 0.00 0.00 43 1009.9
20260509183625 31 40 8.0 19.3 0.00 0.00 0.00 43 1009.9
20260509183504 31 42 8.0 19.3 0.00 0.00 0.00 43 1010.0
20260509183404 31 46 8.0 17.7 0.00 0.00 0.00 43 1010.1
20260509183325 31 45 9.7 17.7 0.00 0.00 0.00 43 1010.1
20260509183204 31 43 9.7 17.7 0.00 0.00 0.00 43 1010.2
20260509183125 31 43 8.0 17.7 0.00 0.00 0.00 42 1010.2
20260509183004 31 40 8.0 17.7 0.00 0.00 0.00 43 1010.2
20260509182925 31 41 8.0 17.7 0.00 0.00 0.00 42 1010.2
20260509182804 31 42 6.4 17.7 0.00 0.00 0.00 43 1010.2
20260509182704 31 45 6.4 17.7 0.00 0.00 0.00 43 1010.2
20260509182604 31 48 6.4 14.5 0.00 0.00 0.00 42 1010.2
20260509182504 31 47 6.4 14.5 0.00 0.00 0.00 43 1010.2
20260509182404 31 43 6.4 14.5 0.00 0.00 0.00 43 1010.3
20260509182306 31 41 6.4 14.5 0.00 0.00 0.00 42 1010.3
20260509182204 31 40 6.4 14.5 0.00 0.00 0.00 42 1010.4
20260509182104 31 38 6.4 14.5 0.00 0.00 0.00 42 1010.3
20260509182003 31 35 4.8 14.5 0.00 0.00 0.00 42 1010.4
20260509181904 31 31 4.8 14.5 0.00 0.00 0.00 41 1010.4
20260509181804 31 27 4.8 14.5 0.00 0.00 0.00 42 1010.5
20260509181704 31 20 4.8 14.5 0.00 0.00 0.00 42 1010.5
20260509181604 31 14 4.8 14.5 0.00 0.00 0.00 42 1010.5
20260509181504 31 10 4.8 14.5 0.00 0.00 0.00 42 1010.5
20260509181404 31 3 4.8 14.5 0.00 0.00 0.00 42 1010.4
20260509181325 31 7 4.8 14.5 0.00 0.00 0.00 42 1010.5
20260509181225 31 5 4.8 14.5 0.00 0.00 0.00 42 1010.4
20260509181104 31 7 4.8 11.3 0.00 0.00 0.00 42 1010.4
20260509181004 31 14 4.8 11.3 0.00 0.00 0.00 42 1010.4
20260509180904 31 22 4.8 11.3 0.00 0.00 0.00 42 1010.4
20260509180825 31 27 4.8 11.3 0.00 0.00 0.00 41 1010.5
20260509180704 31 34 4.8 11.3 0.00 0.00 0.00 41 1010.5
20260509180604 31 40 6.4 11.3 0.00 0.00 0.00 41 1010.5
20260509180504 31 47 6.4 11.3 0.00 0.00 0.00 41 1010.5
20260509180404 31 54 6.4 11.3 0.00 0.00 0.00 41 1010.5
20260509180304 30 58 6.4 16.1 0.00 0.00 0.00 40 1010.5
20260509180204 30 61 4.8 16.1 0.00 0.00 0.00 41 1010.5
20260509180104 30 63 4.8 16.1 0.00 0.00 0.00 41 1010.5
20260509180004 30 69 4.8 16.1 0.00 0.00 0.00 41 1010.5
20260509175904 30 69 4.8 16.1 0.00 0.00 0.00 42 1010.6
20260509175804 30 72 4.8 16.1 0.00 0.00 0.00 42 1010.6
20260509175725 30 71 4.8 16.1 0.00 0.00 0.00 41 1010.5
20260509175604 30 70 6.4 16.1 0.00 0.00 0.00 41 1010.6
20260509175525 30 68 6.4 16.1 0.00 0.00 0.00 41 1010.6
20260509175404 31 68 6.4 16.1 0.00 0.00 0.00 40 1010.6
20260509175306 31 71 6.4 14.5 0.00 0.00 0.00 40 1010.6
20260509175225 31 69 6.4 14.5 0.00 0.00 0.00 40 1010.6
20260509175104 30 65 6.4 14.5 0.00 0.00 0.00 40 1010.6
20260509175004 30 60 8.0 14.5 0.00 0.00 0.00 41 1010.6
20260509174904 30 58 8.0 14.5 0.00 0.00 0.00 41 1010.7
20260509174804 30 58 8.0 14.5 0.00 0.00 0.00 41 1010.7
20260509174704 31 58 6.4 14.5 0.00 0.00 0.00 41 1010.7
20260509174604 31 58 6.4 14.5 0.00 0.00 0.00 41 1010.7
20260509174504 31 60 6.4 12.9 0.00 0.00 0.00 41 1010.7
20260509174404 31 59 6.4 12.9 0.00 0.00 0.00 40 1010.7
20260509174325 31 58 6.4 12.9 0.00 0.00 0.00 40 1010.7
20260509174204 31 56 4.8 12.9 0.00 0.00 0.00 39 1010.6
20260509174104 31 60 4.8 12.9 0.00 0.00 0.00 39 1010.7
20260509174004 31 61 4.8 11.3 0.00 0.00 0.00 39 1010.7
20260509173925 31 62 4.8 11.3 0.00 0.00 0.00 39 1010.7
20260509173804 31 62 4.8 11.3 0.00 0.00 0.00 38 1010.8
20260509173704 31 60 4.8 11.3 0.00 0.00 0.00 38 1010.8
20260509173604 31 59 4.8 11.3 0.00 0.00 0.00 37 1010.9
20260509173525 31 58 4.8 11.3 0.00 0.00 0.00 37 1010.9
20260509173425 31 57 4.8 11.3 0.00 0.00 0.00 37 1011.0
20260509173304 30 58 4.8 11.3 0.00 0.00 0.00 37 1011.0
20260509173204 30 57 4.8 11.3 0.00 0.00 0.00 37 1011.0
20260509173104 30 55 6.4 14.5 0.00 0.00 0.00 37 1011.0
20260509173004 30 53 6.4 14.5 0.00 0.00 0.00 36 1011.1
20260509172904 30 50 6.4 14.5 0.00 0.00 0.00 36 1011.0
20260509172804 30 50 6.4 14.5 0.00 0.00 0.00 36 1011.1
20260509172704 30 51 4.8 14.5 0.00 0.00 0.00 36 1011.1
20260509172625 30 50 4.8 14.5 0.00 0.00 0.00 35 1011.2
20260509172525 30 53 4.8 14.5 0.00 0.00 0.00 35 1011.1
20260509172404 30 58 4.8 14.5 0.00 0.00 0.00 35 1011.1
20260509172306 30 58 4.8 14.5 0.00 0.00 0.00 35 1011.1
20260509172204 30 61 4.8 14.5 0.00 0.00 0.00 35 1011.2
20260509172125 30 68 3.2 12.9 0.00 0.00 0.00 35 1011.1
20260509172004 30 80 3.2 12.9 0.00 0.00 0.00 34 1011.1
20260509171904 30 92 3.2 8.0 0.00 0.00 0.00 34 1011.1
20260509171804 30 95 3.2 9.7 0.00 0.00 0.00 35 1011.1
20260509171704 30 89 3.2 9.7 0.00 0.00 0.00 35 1011.2
20260509171604 30 87 3.2 9.7 0.00 0.00 0.00 34 1011.2
20260509171504 30 86 3.2 9.7 0.00 0.00 0.00 33 1011.2
20260509171404 30 87 3.2 9.7 0.00 0.00 0.00 32 1011.2
20260509171304 30 89 4.8 9.7 0.00 0.00 0.00 32 1011.2
20260509171204 30 94 4.8 9.7 0.00 0.00 0.00 32 1011.2
20260509171103 30 95 4.8 9.7 0.00 0.00 0.00 31 1011.2
20260509171004 30 99 3.2 9.7 0.00 0.00 0.00 31 1011.2
20260509170904 30 101 4.8 9.7 0.00 0.00 0.00 31 1011.2
20260509170804 30 106 3.2 11.3 0.00 0.00 0.00 30 1011.3
20260509170704 30 107 3.2 11.3 0.00 0.00 0.00 28 1011.3
20260509170604 29 108 3.2 11.3 0.00 0.00 0.00 28 1011.2
20260509170504 29 105 3.2 11.3 0.00 0.00 0.00 28 1011.3
20260509170404 29 103 3.2 11.3 0.00 0.00 0.00 27 1011.3
20260509170304 29 96 4.8 11.3 0.00 0.00 0.00 28 1011.2
20260509170204 29 87 4.8 17.7 0.00 0.00 0.00 26 1011.2
20260509170104 29 83 4.8 17.7 0.00 0.00 0.00 27 1011.2
20260509170025 29 81 4.8 17.7 0.00 0.00 0.00 27 1011.3
20260509165904 29 77 4.8 17.7 0.00 0.00 0.00 25 1011.2
20260509165804 28 73 4.8 17.7 0.00 0.00 0.00 26 1011.2
20260509165704 28 71 4.8 17.7 0.00 0.00 0.00 25 1011.3
20260509165625 28 70 6.4 17.7 0.00 0.00 0.00 25 1011.2
20260509165504 28 69 4.8 17.7 0.00 0.00 0.00 25 1011.2
20260509165404 28 69 6.4 17.7 0.00 0.00 0.00 24 1011.2
20260509165306 28 68 6.4 17.7 0.00 0.00 0.00 23 1011.2
20260509165204 28 67 4.8 14.5 0.00 0.00 0.00 24 1011.2
20260509165104 28 66 6.4 14.5 0.00 0.00 0.00 23 1011.2
20260509165004 28 67 6.4 14.5 0.00 0.00 0.00 22 1011.2
20260509164904 28 67 6.4 14.5 0.00 0.00 0.00 23 1011.2
20260509164804 28 68 6.4 14.5 0.00 0.00 0.00 23 1011.2
20260509164704 28 70 4.8 14.5 0.00 0.00 0.00 22 1011.2
20260509164604 28 71 4.8 14.5 0.00 0.00 0.00 21 1011.2
20260509164504 28 71 4.8 14.5 0.00 0.00 0.00 19 1011.2
20260509164404 28 71 4.8 14.5 0.00 0.00 0.00 19 1011.2
20260509164304 28 75 4.8 12.9 0.00 0.00 0.00 19 1011.2
20260509164204 28 77 4.8 12.9 0.00 0.00 0.00 17 1011.3
20260509164104 28 80 4.8 12.9 0.00 0.00 0.00 17 1011.3
20260509164004 28 79 4.8 12.9 0.00 0.00 0.00 15 1011.3
20260509163904 28 77 6.4 16.1 0.00 0.00 0.00 16 1011.3
20260509163825 28 73 6.4 16.1 0.00 0.00 0.00 16 1011.3
20260509163704 28 73 6.4 16.1 0.00 0.00 0.00 15 1011.4
20260509163604 28 74 8.0 16.1 0.00 0.00 0.00 16 1011.4
20260509163504 28 74 8.0 16.1 0.00 0.00 0.00 17 1011.4
20260509163425 28 73 8.0 16.1 0.00 0.00 0.00 16 1011.5
20260509163304 28 68 8.0 16.1 0.00 0.00 0.00 16 1011.5
20260509163204 28 65 8.0 16.1 0.00 0.00 0.00 17 1011.5
20260509163104 28 62 8.0 16.1 0.00 0.00 0.00 18 1011.5
20260509163004 28 59 8.0 16.1 0.00 0.00 0.00 18 1011.5
20260509162925 28 55 8.0 16.1 0.00 0.00 0.00 16 1011.4
20260509162804 28 53 8.0 14.5 0.00 0.00 0.00 14 1011.4
20260509162703 28 49 8.0 14.5 0.00 0.00 0.00 16 1011.4
20260509162604 28 43 6.4 14.5 0.00 0.00 0.00 12 1011.4
20260509162504 28 38 6.4 12.9 0.00 0.00 0.00 12 1011.4
20260509162404 28 35 8.0 12.9 0.00 0.00 0.00 13 1011.4
20260509162307 28 35 8.0 12.9 0.00 0.00 0.00 12 1011.4
20260509162204 28 38 8.0 12.9 0.00 0.00 0.00 11 1011.4
20260509162125 28 40 8.0 14.5 0.00 0.00 0.00 10 1011.4
20260509162004 28 42 8.0 14.5 0.00 0.00 0.00 10 1011.3
20260509161925 28 44 8.0 17.7 0.00 0.00 0.00 10 1011.3
20260509161804 27 46 8.0 22.5 0.00 0.00 0.00 7 1011.3
20260509161704 27 49 9.7 22.5 0.00 0.00 0.00 7 1011.3
20260509161604 27 51 9.7 22.5 0.00 0.00 0.00 9 1011.3
20260509161504 27 49 9.7 22.5 0.00 0.00 0.00 9 1011.3
20260509161404 27 50 9.7 22.5 0.00 0.00 0.00 8 1011.3
20260509161304 27 50 9.7 22.5 0.00 0.00 0.00 8 1011.3
20260509161204 27 50 9.7 22.5 0.00 0.00 0.00 8 1011.3
20260509161104 27 48 9.7 22.5 0.00 0.00 0.00 8 1011.3
20260509161004 27 47 9.7 22.5 0.00 0.00 0.00 9 1011.3
20260509160904 27 46 9.7 22.5 0.00 0.00 0.00 7 1011.4
20260509160804 27 46 9.7 20.9 0.00 0.00 0.00 6 1011.3
20260509160704 27 46 9.7 20.9 0.00 0.00 0.00 4 1011.3
20260509160604 27 47 11.3 20.9 0.00 0.00 0.00 3 1011.3
20260509160504 27 51 11.3 20.9 0.00 0.00 0.00 3 1011.3
20260509160404 27 52 11.3 20.9 0.00 0.00 0.00 3 1011.2
20260509160304 27 55 11.3 20.9 0.00 0.00 0.00 3 1011.2
20260509160204 27 56 11.3 20.9 0.00 0.00 0.00 1 1011.2
20260509160104 27 56 12.9 20.9 0.00 0.00 0.00 3 1011.2
20260509160004 27 59 12.9 19.3 0.00 0.00 0.00 3 1011.2
20260509155904 27 62 12.9 20.9 0.00 0.00 0.00 2 1011.2
20260509155804 27 62 12.9 24.1 0.00 0.00 0.00 1 1011.1
20260509155725 27 61 12.9 24.1 0.00 0.00 0.00 1 1011.1
20260509155604 27 58 12.9 24.1 0.00 0.00 0.00 1 1011.1
20260509155504 27 55 11.3 24.1 0.00 0.00 0.00 1 1011.1
20260509155404 27 54 11.3 24.1 0.00 0.00 0.00 1 1011.1
20260509155306 27 51 11.3 24.1 0.00 0.00 0.00 1 1011.1
20260509155204 27 50 11.3 24.1 0.00 0.00 0.00 1 1011.1
20260509155104 27 49 11.3 24.1 0.00 0.00 0.00 1 1011.2
20260509155004 27 45 11.3 24.1 0.00 0.00 0.00 1 1011.1
20260509154904 27 41 9.7 24.1 0.00 0.00 0.00 1 1011.2
20260509154804 27 40 9.7 17.7 0.00 0.00 0.00 1 1011.2
20260509154704 27 40 9.7 17.7 0.00 0.00 0.00 1 1011.2
20260509154604 27 39 8.0 17.7 0.00 0.00 0.00 1 1011.3
20260509154504 27 40 8.0 17.7 0.00 0.00 0.00 1 1011.3
20260509154404 27 40 8.0 17.7 0.00 0.00 0.00 1 1011.3
20260509154304 27 38 8.0 17.7 0.00 0.00 0.00 1 1011.3
20260509154204 27 36 8.0 17.7 0.00 0.00 0.00 1 1011.3
20260509154125 27 36 8.0 17.7 0.00 0.00 0.00 1 1011.3
20260509154004 27 34 8.0 20.9 0.00 0.00 0.00 1 1011.3
20260509153904 27 32 9.7 20.9 0.00 0.00 0.00 1 1011.3
20260509153804 27 32 9.7 20.9 0.00 0.00 0.00 1 1011.3
20260509153704 27 31 9.7 20.9 0.00 0.00 0.00 1 1011.3
20260509153603 27 34 9.7 20.9 0.00 0.00 0.00 1 1011.2
20260509153504 27 36 9.7 20.9 0.00 0.00 0.00 1 1011.2
20260509153404 27 36 9.7 20.9 0.00 0.00 0.00 1 1011.3
20260509153304 27 36 9.7 20.9 0.00 0.00 0.00 1 1011.2
20260509153204 26 37 9.7 20.9 0.00 0.00 0.00 1 1011.2
20260509153125 26 37 9.7 20.9 0.00 0.00 0.00 1 1011.2
20260509153004 26 43 9.7 19.3 0.00 0.00 0.00 1 1011.1
20260509152904 26 45 9.7 19.3 0.00 0.00 0.00 1 1011.1
20260509152804 26 47 8.0 19.3 0.00 0.00 0.00 1 1011.1
20260509152704 26 46 9.7 19.3 0.00 0.00 0.00 1 1011.1
20260509152625 26 45 9.7 19.3 0.00 0.00 0.00 1 1011.1
20260509152504 26 42 9.7 19.3 0.00 0.00 0.00 1 1011.1
20260509152404 26 42 9.7 19.3 0.00 0.00 0.00 1 1011.1
20260509152325 26 42 9.7 19.3 0.00 0.00 0.00 1 1011.0
20260509152204 26 44 9.7 19.3 0.00 0.00 0.00 1 1011.1
20260509152104 26 43 9.7 19.3 0.00 0.00 0.00 1 1011.1
20260509152004 26 41 9.7 19.3 0.00 0.00 0.00 1 1011.1
20260509151904 26 40 9.7 19.3 0.00 0.00 0.00 1 1011.1
20260509151804 26 38 9.7 19.3 0.00 0.00 0.00 1 1011.1
20260509151704 26 40 9.7 19.3 0.00 0.00 0.00 1 1011.1
20260509151604 26 40 9.7 19.3 0.00 0.00 0.00 1 1011.1
20260509151525 26 40 8.0 19.3 0.00 0.00 0.00 1 1011.1
20260509151404 26 42 9.7 19.3 0.00 0.00 0.00 1 1011.1
20260509151304 26 42 8.0 19.3 0.00 0.00 0.00 1 1011.1
20260509151204 26 44 9.7 19.3 0.00 0.00 0.00 1 1011.1
20260509151104 26 44 9.7 19.3 0.00 0.00 0.00 1 1011.1
20260509151004 26 46 9.7 17.7 0.00 0.00 0.00 1 1011.1
20260509150904 26 45 9.7 17.7 0.00 0.00 0.00 1 1011.1
20260509150804 26 47 9.7 17.7 0.00 0.00 0.00 1 1011.1
20260509150704 26 48 9.7 17.7 0.00 0.00 0.00 1 1011.1
20260509150604 25 49 9.7 17.7 0.00 0.00 0.00 1 1011.1
20260509150504 25 52 9.7 17.7 0.00 0.00 0.00 1 1011.1
20260509150404 25 52 9.7 17.7 0.00 0.00 0.00 1 1011.1
20260509150304 25 52 9.7 16.1 0.00 0.00 0.00 1 1011.1
20260509150204 25 51 8.0 16.1 0.00 0.00 0.00 1 1011.1
20260509150104 25 51 8.0 14.5 0.00 0.00 0.00 1 1011.0
20260509150004 25 50 8.0 14.5 0.00 0.00 0.00 1 1011.1
20260509145904 25 51 8.0 14.5 0.00 0.00 0.00 1 1011.1
20260509145804 25 52 8.0 14.5 0.00 0.00 0.00 1 1011.1
20260509145725 25 49 8.0 17.7 0.00 0.00 0.00 1 1011.1
20260509145604 25 46 8.0 17.7 0.00 0.00 0.00 1 1011.1
20260509145504 25 42 8.0 17.7 0.00 0.00 0.00 1 1011.1
20260509145425 25 42 8.0 17.7 0.00 0.00 0.00 1 1011.1
20260509145306 25 40 8.0 17.7 0.00 0.00 0.00 1 1011.1
20260509145204 25 37 8.0 17.7 0.00 0.00 0.00 1 1011.1
20260509145125 25 36 8.0 17.7 0.00 0.00 0.00 1 1011.1
20260509145004 25 35 8.0 17.7 0.00 0.00 0.00 1 1011.1
20260509144704 25 36 8.0 16.1 0.00 0.00 0.00 1 1011.0
20260509144625 25 36 8.0 17.7 0.00 0.00 0.00 1 1011.0
20260509144504 25 30 6.4 17.7 0.00 0.00 0.00 1 1011.0
20260509144404 25 25 6.4 17.7 0.00 0.00 0.00 1 1011.0
20260509144304 25 23 6.4 17.7 0.00 0.00 0.00 1 1011.0
20260509144204 25 26 6.4 17.7 0.00 0.00 0.00 1 1011.0
20260509144125 25 26 6.4 17.7 0.00 0.00 0.00 1 1011.0
20260509144004 24 27 8.0 17.7 0.00 0.00 0.00 1 1011.0
20260509143904 24 24 8.0 17.7 0.00 0.00 0.00 1 1011.0
20260509143804 24 25 8.0 17.7 0.00 0.00 0.00 1 1011.0
20260509143704 24 22 8.0 17.7 0.00 0.00 0.00 1 1011.0
20260509143625 24 21 8.0 16.1 0.00 0.00 0.00 1 1011.0
20260509143504 24 28 8.0 16.1 0.00 0.00 0.00 1 1010.9
20260509143425 24 27 8.0 16.1 0.00 0.00 0.00 1 1010.9
20260509143325 24 29 8.0 16.1 0.00 0.00 0.00 1 1010.9
20260509143204 23 30 8.0 16.1 0.00 0.00 0.00 1 1010.9
20260509143125 23 31 8.0 16.1 0.00 0.00 0.00 1 1010.9
20260509143003 23 32 8.0 16.1 0.00 0.00 0.00 1 1010.9
20260509142904 23 34 8.0 16.1 0.00 0.00 0.00 1 1010.9
20260509142804 23 31 8.0 19.3 0.00 0.00 0.00 1 1010.9
20260509142704 23 30 8.0 19.3 0.00 0.00 0.00 1 1010.9
20260509142604 23 30 8.0 19.3 0.00 0.00 0.00 1 1010.9
20260509142504 23 23 8.0 19.3 0.00 0.00 0.00 1 1010.9
20260509142425 23 21 9.7 19.3 0.00 0.00 0.00 1 1010.8
20260509142307 23 20 9.7 19.3 0.00 0.00 0.00 1 1010.8
20260509142204 23 17 9.7 19.3 0.00 0.00 0.00 1 1010.8
20260509142104 23 11 9.7 19.3 0.00 0.00 0.00 1 1010.8
20260509142025 23 10 8.0 19.3 0.00 0.00 0.00 1 1010.8
20260509141904 24 2 8.0 19.3 0.00 0.00 0.00 1 1010.8
20260509141804 24 358 8.0 17.7 0.00 0.00 0.00 1 1010.8
20260509141704 24 359 8.0 17.7 0.00 0.00 0.00 1 1010.7
20260509141604 24 359 8.0 19.3 0.00 0.00 0.00 1 1010.6
20260509141504 24 1 8.0 19.3 0.00 0.00 0.00 1 1010.6
20260509141425 24 3 8.0 19.3 0.00 0.00 0.00 1 1010.6
20260509141304 24 2 8.0 19.3 0.00 0.00 0.00 1 1010.6
20260509141204 24 1 8.0 19.3 0.00 0.00 0.00 1 1010.6
20260509141104 25 360 8.0 19.3 0.00 0.00 0.00 1 1010.7
20260509141004 25 357 8.0 19.3 0.00 0.00 0.00 1 1010.7
20260509140904 25 357 8.0 19.3 0.00 0.00 0.00 1 1010.6
20260509140825 25 356 8.0 19.3 0.00 0.00 0.00 1 1010.6
20260509140725 25 352 8.0 19.3 0.00 0.00 0.00 1 1010.5
20260509140604 25 345 6.4 16.1 0.00 0.00 0.00 1 1010.5
20260509140504 25 349 6.4 16.1 0.00 0.00 0.00 1 1010.4
20260509140404 25 349 6.4 16.1 0.00 0.00 0.00 1 1010.4
20260509140304 25 353 6.4 14.5 0.00 0.00 0.00 1 1010.4
20260509140204 25 353 6.4 14.5 0.00 0.00 0.00 1 1010.3
20260509140104 25 355 6.4 12.9 0.00 0.00 0.00 1 1010.3
20260509140005 25 3 6.4 12.9 0.00 0.00 0.00 1 1010.4
20260509135904 25 10 6.4 12.9 0.00 0.00 0.00 1 1010.4
20260509135804 25 20 4.8 12.9 0.00 0.00 0.00 1 1010.4
20260509135704 25 28 6.4 12.9 0.00 0.00 0.00 1 1010.4
20260509135604 25 31 6.4 11.3 0.00 0.00 0.00 1 1010.4
20260509135525 25 32 6.4 11.3 0.00 0.00 0.00 1 1010.4
20260509135404 25 33 6.4 11.3 0.00 0.00 0.00 1 1010.4
20260509135306 25 31 6.4 11.3 0.00 0.00 0.00 1 1010.4
20260509135204 25 31 4.8 9.7 0.00 0.00 0.00 1 1010.4
20260509135104 25 32 4.8 9.7 0.00 0.00 0.00 1 1010.5
20260509135004 25 27 4.8 9.7 0.00 0.00 0.00 1 1010.5
20260509134904 25 23 4.8 9.7 0.00 0.00 0.00 1 1010.5
20260509134803 25 16 4.8 9.7 0.00 0.00 0.00 1 1010.6
20260509134703 25 6 4.8 12.9 0.00 0.00 0.00 1 1010.6
20260509134604 25 1 4.8 12.9 0.00 0.00 0.00 1 1010.6
20260509134504 25 340 4.8 12.9 0.00 0.00 0.00 1 1010.6
20260509134404 25 337 4.8 12.9 0.00 0.00 0.00 1 1010.6
20260509134304 25 340 4.8 12.9 0.00 0.00 0.00 1 1010.6
20260509134204 24 347 3.2 12.9 0.00 0.00 0.00 1 1010.5
20260509134104 24 357 3.2 12.9 0.00 0.00 0.00 1 1010.5
20260509134004 24 4 3.2 12.9 0.00 0.00 0.00 1 1010.5
20260509133904 24 16 3.2 12.9 0.00 0.00 0.00 1 1010.5
20260509133804 24 29 3.2 12.9 0.00 0.00 0.00 1 1010.5
20260509133704 24 42 3.2 9.7 0.00 0.00 0.00 1 1010.5
20260509133604 24 46 3.2 9.7 0.00 0.00 0.00 1 1010.5
20260509133504 24 60 3.2 8.0 0.00 0.00 0.00 1 1010.6
20260509133404 24 64 3.2 6.4 0.00 0.00 0.00 1 1010.7
20260509133303 23 66 3.2 6.4 0.00 0.00 0.00 1 1010.7
20260509133204 23 67 3.2 6.4 0.00 0.00 0.00 1 1010.8
20260509133125 23 68 3.2 6.4 0.00 0.00 0.00 1 1010.9
20260509133004 23 71 3.2 6.4 0.00 0.00 0.00 1 1010.9
20260509132925 23 73 3.2 6.4 0.00 0.00 0.00 1 1010.9
20260509132804 23 76 3.2 6.4 0.00 0.00 0.00 1 1010.8
20260509132704 23 77 3.2 6.4 0.00 0.00 0.00 1 1010.9
20260509132604 23 78 3.2 6.4 0.00 0.00 0.00 1 1010.8
20260509132504 23 81 3.2 6.4 0.00 0.00 0.00 1 1010.8
20260509132404 23 84 3.2 6.4 0.00 0.00 0.00 1 1010.9
20260509132306 23 84 3.2 6.4 0.00 0.00 0.00 1 1010.8
20260509132204 23 84 3.2 6.4 0.00 0.00 0.00 1 1010.9
20260509132104 23 84 3.2 6.4 0.00 0.00 0.00 1 1010.9
20260509132025 23 84 3.2 6.4 0.00 0.00 0.00 1 1010.9
20260509131903 23 83 3.2 6.4 0.00 0.00 0.00 1 1010.9
20260509131803 23 83 3.2 6.4 0.00 0.00 0.00 1 1010.9
20260509131704 22 83 3.2 6.4 0.00 0.00 0.00 1 1011.0
20260509131604 22 86 3.2 6.4 0.00 0.00 0.00 1 1011.0
20260509131504 22 87 3.2 6.4 0.00 0.00 0.00 1 1011.1
20260509131404 22 88 3.2 6.4 0.00 0.00 0.00 1 1011.0
20260509131304 22 90 3.2 6.4 0.00 0.00 0.00 1 1011.1
20260509131204 22 92 3.2 6.4 0.00 0.00 0.00 1 1011.1
20260509131104 22 93 1.6 6.4 0.00 0.00 0.00 1 1011.0
20260509131003 22 94 1.6 6.4 0.00 0.00 0.00 1 1011.1
20260509130904 22 96 1.6 6.4 0.00 0.00 0.00 1 1011.1
20260509130804 22 99 1.6 6.4 0.00 0.00 0.00 1 1011.0
20260509130725 22 104 1.6 6.4 0.00 0.00 0.00 1 1011.1
20260509130625 22 107 0.0 4.8 0.00 0.00 0.00 1 1011.1
20260509130504 22 107 0.0 3.2 0.00 0.00 0.00 1 1011.1
20260509130404 22 106 0.0 3.2 0.00 0.00 0.00 1 1011.2
20260509130304 22 105 0.0 3.2 0.00 0.00 0.00 1 1011.2
20260509130204 22 0 0.0 0.0 0.00 0.00 0.00 1 1011.2
20260509130104 22 0 0.0 0.0 0.00 0.00 0.00 1 1011.1
20260509130004 22 0 0.0 0.0 0.00 0.00 0.00 1 1011.1
20260509125904 22 0 0.0 0.0 0.00 0.00 0.00 1 1011.1
20260509125804 22 0 0.0 0.0 0.00 0.00 0.00 1 1011.1
20260509125704 22 0 0.0 0.0 0.00 0.00 0.00 1 1011.0
20260509125625 22 0 0.0 0.0 0.00 0.00 0.00 1 1011.0
20260509125504 22 0 0.0 0.0 0.00 0.00 0.00 1 1011.0
20260509125404 22 0 0.0 0.0 0.00 0.00 0.00 1 1011.1
20260509125307 22 0 0.0 0.0 0.00 0.00 0.00 1 1011.1
20260509125203 22 0 0.0 0.0 0.00 0.00 0.00 1 1011.0
20260509125104 22 0 0.0 0.0 0.00 0.00 0.00 1 1011.1
20260509125004 22 0 0.0 0.0 0.00 0.00 0.00 1 1011.0
20260509124904 22 0 0.0 0.0 0.00 0.00 0.00 1 1011.0
20260509124803 22 0 0.0 0.0 0.00 0.00 0.00 1 1011.0
20260509124704 22 0 0.0 0.0 0.00 0.00 0.00 1 1011.0
20260509124604 22 0 0.0 0.0 0.00 0.00 0.00 1 1011.0
20260509124504 22 0 0.0 0.0 0.00 0.00 0.00 1 1010.9
20260509124404 22 0 0.0 0.0 0.00 0.00 0.00 1 1010.7
20260509124304 22 0 0.0 0.0 0.00 0.00 0.00 1 1010.7
20260509124204 22 0 0.0 0.0 0.00 0.00 0.00 1 1010.7
20260509124125 22 0 0.0 0.0 0.00 0.00 0.00 1 1010.6
20260509124003 22 0 0.0 0.0 0.00 0.00 0.00 1 1010.6
20260509123904 22 0 0.0 0.0 0.00 0.00 0.00 1 1010.7
20260509123804 22 0 0.0 4.8 0.00 0.00 0.00 1 1010.6
20260509123703 22 0 0.0 4.8 0.00 0.00 0.00 1 1010.6
20260509123604 22 0 0.0 4.8 0.00 0.00 0.00 1 1010.6
20260509123504 22 0 0.0 4.8 0.00 0.00 0.00 1 1010.7
20260509123404 22 0 0.0 4.8 0.00 0.00 0.00 1 1010.7
20260509123304 22 0 0.0 4.8 0.00 0.00 0.00 1 1010.7
20260509123204 22 203 0.0 4.8 0.00 0.00 0.00 1 1010.7
20260509123104 22 203 0.0 4.8 0.00 0.00 0.00 1 1010.7
20260509123003 22 203 0.0 4.8 0.00 0.00 0.00 1 1010.7
20260509122904 22 203 0.0 4.8 0.00 0.00 0.00 1 1010.7
20260509122803 22 203 0.0 4.8 0.00 0.00 0.00 1 1010.7
20260509122704 22 203 0.0 4.8 0.00 0.00 0.00 1 1010.6
20260509122604 22 203 0.0 4.8 0.00 0.00 0.00 1 1010.6
20260509122504 22 203 1.6 4.8 0.00 0.00 0.00 1 1010.6
20260509122403 22 203 1.6 6.4 0.00 0.00 0.00 1 1010.7
20260509122306 22 203 1.6 6.4 0.00 0.00 0.00 1 1010.7
20260509122203 22 203 1.6 6.4 0.00 0.00 0.00 1 1010.7
20260509122125 22 202 1.6 6.4 0.00 0.00 0.00 1 1010.7
20260509122025 22 202 1.6 6.4 0.00 0.00 0.00 1 1010.8
20260509121903 22 202 1.6 6.4 0.00 0.00 0.00 1 1010.7
20260509121804 22 201 1.6 6.4 0.00 0.00 0.00 1 1010.7
20260509121703 22 201 1.6 6.4 0.00 0.00 0.00 1 1010.6
20260509121604 22 201 1.6 6.4 0.00 0.00 0.00 1 1010.5
20260509121504 22 201 1.6 6.4 0.00 0.00 0.00 1 1010.5
20260509121425 22 200 0.0 4.8 0.00 0.00 0.00 1 1010.5
20260509121304 22 198 0.0 4.8 0.00 0.00 0.00 1 1010.5
20260509121204 22 192 0.0 3.2 0.00 0.00 0.00 1 1010.6
20260509121104 22 0 0.0 0.0 0.00 0.00 0.00 1 1010.6
20260509121003 22 0 0.0 0.0 0.00 0.00 0.00 1 1010.7
20260509120925 22 0 0.0 0.0 0.00 0.00 0.00 1 1010.6
20260509120803 22 0 0.0 0.0 0.00 0.00 0.00 1 1010.6
20260509120704 22 0 0.0 0.0 0.00 0.00 0.00 1 1010.6
20260509120624 22 0 0.0 0.0 0.00 0.00 0.00 1 1010.6
20260509120504 22 0 0.0 0.0 0.00 0.00 0.00 1 1010.6
20260509120404 22 0 0.0 0.0 0.00 0.00 0.00 1 1010.7
20260509120325 22 0 0.0 0.0 0.00 0.00 0.00 1 1010.7
20260509120224 22 0 0.0 0.0 0.00 0.00 0.00 1 1010.7
20260509120104 22 0 0.0 0.0 0.00 0.00 0.00 1 1010.7
20260509120004 22 0 0.0 0.0 0.00 0.00 0.00 1 1010.6
20260509115904 22 0 0.0 0.0 0.00 0.00 0.00 1 1010.7
20260509115804 22 0 0.0 0.0 0.00 0.00 0.00 1 1010.7
20260509115704 22 0 0.0 0.0 0.00 0.00 0.00 1 1010.7
20260509115604 22 0 0.0 0.0 0.00 0.00 0.00 1 1010.7
20260509115504 22 0 0.0 0.0 0.00 0.00 0.00 1 1010.7
20260509115403 22 163 0.0 6.4 0.00 0.00 0.00 1 1010.7
20260509115306 22 163 0.0 6.4 0.00 0.00 0.00 1 1010.7
20260509115204 22 163 0.0 6.4 0.00 0.00 0.00 1 1010.7
20260509115104 22 163 0.0 6.4 0.00 0.00 0.00 1 1010.8
20260509115004 22 163 0.0 6.4 0.00 0.00 0.00 1 1010.9
20260509114925 22 163 0.0 6.4 0.00 0.00 0.00 1 1011.0
20260509114804 22 163 0.0 6.4 0.00 0.00 0.00 1 1011.0
20260509114725 22 160 1.6 6.4 0.00 0.00 0.00 1 1011.1
20260509114604 22 154 1.6 9.7 0.00 0.00 0.00 1 1011.2
20260509114504 22 152 1.6 9.7 0.00 0.00 0.00 1 1011.3
20260509114404 22 150 1.6 9.7 0.00 0.00 0.00 1 1011.3
20260509114325 22 149 1.6 9.7 0.00 0.00 0.00 1 1011.3
20260509114204 22 149 1.6 9.7 0.00 0.00 0.00 1 1011.3
20260509114104 22 149 1.6 9.7 0.00 0.00 0.00 1 1011.3
20260509114004 22 149 3.2 9.7 0.00 0.00 0.00 1 1011.3
20260509113925 22 149 3.2 9.7 0.00 0.00 0.00 1 1011.4
20260509113825 22 149 3.2 9.7 0.00 0.00 0.00 1 1011.4
20260509113704 22 150 3.2 9.7 0.00 0.00 0.00 1 1011.4
20260509113604 22 150 3.2 9.7 0.00 0.00 0.00 1 1011.4
20260509113503 22 150 3.2 9.7 0.00 0.00 0.00 1 1011.3
20260509113404 22 150 3.2 9.7 0.00 0.00 0.00 1 1011.4
20260509113304 22 151 3.2 9.7 0.00 0.00 0.00 1 1011.4
20260509113225 22 151 3.2 9.7 0.00 0.00 0.00 1 1011.5
20260509113104 22 150 3.2 9.7 0.00 0.00 0.00 1 1011.6
20260509113004 22 149 3.2 9.7 0.00 0.00 0.00 1 1011.6
20260509112904 22 149 3.2 9.7 0.00 0.00 0.00 1 1011.6
20260509112804 22 149 3.2 9.7 0.00 0.00 0.00 1 1011.6
20260509112704 22 148 3.2 9.7 0.00 0.00 0.00 1 1011.7
20260509112604 22 150 3.2 8.0 0.00 0.00 0.00 1 1011.7
20260509112504 22 149 3.2 8.0 0.00 0.00 0.00 1 1011.8
20260509112404 22 149 3.2 8.0 0.00 0.00 0.00 1 1011.9
20260509112306 22 150 3.2 8.0 0.00 0.00 0.00 1 1011.9
20260509112225 22 150 4.8 8.0 0.00 0.00 0.00 1 1011.9
20260509112103 22 154 3.2 8.0 0.00 0.00 0.00 1 1012.0
20260509112004 22 175 3.2 8.0 0.00 0.00 0.00 1 1012.0
20260509111904 22 292 3.2 8.0 0.00 0.00 0.00 1 1012.0
20260509111804 22 314 3.2 8.0 0.00 0.00 0.00 1 1012.0
20260509111703 22 319 3.2 8.0 0.00 0.00 0.00 1 1012.0
20260509111604 22 324 3.2 8.0 0.00 0.00 0.00 1 1012.0
20260509111504 22 325 3.2 8.0 0.00 0.00 0.00 1 1012.0
20260509111404 22 325 3.2 6.4 0.00 0.00 0.00 1 1011.9
20260509111304 22 325 3.2 6.4 0.00 0.00 0.00 1 1011.9
20260509111204 22 325 3.2 6.4 0.00 0.00 0.00 1 1011.9
20260509111104 22 325 1.6 6.4 0.00 0.00 0.00 1 1011.9
20260509111004 22 326 1.6 4.8 0.00 0.00 0.00 1 1011.9
20260509110904 22 326 1.6 4.8 0.00 0.00 0.00 1 1011.8
20260509110825 22 326 1.6 4.8 0.00 0.00 0.00 1 1011.9
20260509110704 22 326 1.6 4.8 0.00 0.00 0.00 1 1011.9
20260509110604 22 326 0.0 4.8 0.00 0.00 0.00 1 1011.9
20260509110503 22 326 0.0 4.8 0.00 0.00 0.00 1 1011.9
20260509110404 22 326 0.0 3.2 0.00 0.00 0.00 1 1011.9
20260509110304 22 326 0.0 1.6 0.00 0.00 0.00 1 1011.8
20260509110203 22 326 0.0 1.6 0.00 0.00 0.00 1 1011.8
20260509110104 22 326 0.0 3.2 0.00 0.00 0.00 1 1011.8
20260509110004 22 326 1.6 3.2 0.00 0.00 0.00 1 1011.9
20260509105903 22 326 1.6 3.2 0.00 0.00 0.00 1 1011.8
20260509105825 22 326 1.6 3.2 0.00 0.00 0.00 1 1011.7
20260509105704 22 326 1.6 4.8 0.00 0.00 0.00 1 1011.8
20260509105604 22 326 1.6 4.8 0.00 0.00 0.00 1 1011.7
20260509105503 22 326 1.6 4.8 0.00 0.00 0.00 1 1011.7
20260509105425 22 326 1.6 4.8 0.00 0.00 0.00 1 1011.8
20260509105306 22 326 1.6 4.8 0.00 0.00 0.00 1 1011.9
20260509105204 22 326 1.6 4.8 0.00 0.00 0.00 1 1012.0
20260509105103 22 326 1.6 4.8 0.00 0.00 0.00 1 1012.0
20260509105004 22 326 1.6 4.8 0.00 0.00 0.00 1 1012.0
20260509104904 22 326 1.6 4.8 0.00 0.00 0.00 1 1012.1
20260509104803 22 326 1.6 4.8 0.00 0.00 0.00 1 1012.1
20260509104704 22 326 1.6 4.8 0.00 0.00 0.00 1 1012.1
20260509104604 22 326 1.6 4.8 0.00 0.00 0.00 1 1012.1
20260509104503 22 326 1.6 4.8 0.00 0.00 0.00 1 1012.0
20260509104425 22 326 1.6 4.8 0.00 0.00 0.00 1 1012.0
20260509104304 22 326 1.6 4.8 0.00 0.00 0.00 1 1012.0
20260509104204 22 326 1.6 4.8 0.00 0.00 0.00 1 1012.0
20260509104108 22 326 1.6 4.8 0.00 0.00 0.00 1 1011.9
20260509104004 22 326 1.6 4.8 0.00 0.00 0.00 1 1011.9
20260509103905 22 326 0.0 4.8 0.00 0.00 0.00 1 1011.9
20260509103804 22 326 0.0 4.8 0.00 0.00 0.00 1 1011.9
20260509103703 22 326 0.0 4.8 0.00 0.00 0.00 1 1011.8
20260509103604 22 0 0.0 0.0 0.00 0.00 0.00 1 1011.8
20260509103504 22 0 0.0 0.0 0.00 0.00 0.00 1 1011.9
20260509103404 22 0 0.0 0.0 0.00 0.00 0.00 1 1011.9
20260509103304 22 0 0.0 0.0 0.00 0.00 0.00 1 1012.0
20260509103225 22 0 0.0 0.0 0.00 0.00 0.00 1 1012.0
20260509103104 22 0 0.0 0.0 0.00 0.00 0.00 1 1012.0
20260509103004 22 0 0.0 0.0 0.00 0.00 0.00 1 1012.0
20260509102904 22 0 0.0 0.0 0.00 0.00 0.00 1 1012.0
20260509102804 22 0 0.0 0.0 0.00 0.00 0.00 1 1012.0
20260509102704 22 0 0.0 0.0 0.00 0.00 0.00 1 1012.0
20260509102625 22 0 0.0 0.0 0.00 0.00 0.00 1 1012.0
20260509102525 22 0 0.0 0.0 0.00 0.00 0.00 1 1012.1
20260509102425 22 0 0.0 0.0 0.00 0.00 0.00 1 1012.1
20260509102305 22 0 0.0 0.0 0.00 0.00 0.00 1 1012.0
20260509102225 22 0 0.0 0.0 0.00 0.00 0.00 1 1012.0
20260509102104 22 0 0.0 0.0 0.00 0.00 0.00 1 1012.0
20260509102004 22 0 0.0 0.0 0.00 0.00 0.00 1 1012.0
20260509101903 22 0 0.0 0.0 0.00 0.00 0.00 1 1012.0
20260509101804 22 0 0.0 0.0 0.00 0.00 0.00 1 1012.0
20260509101704 22 0 0.0 0.0 0.00 0.00 0.00 1 1011.9
20260509101604 22 0 0.0 0.0 0.00 0.00 0.00 1 1011.9
20260509101503 22 0 0.0 0.0 0.00 0.00 0.00 1 1011.9
20260509101404 22 0 0.0 0.0 0.00 0.00 0.00 1 1011.9
20260509101303 22 0 0.0 0.0 0.00 0.00 0.00 1 1011.8
20260509101204 22 0 0.0 0.0 0.00 0.00 0.00 1 1011.8
20260509101104 22 0 0.0 0.0 0.00 0.00 0.00 1 1011.7
20260509101004 22 0 0.0 0.0 0.00 0.00 0.00 1 1011.7
20260509100903 22 0 0.0 0.0 0.00 0.00 0.00 1 1011.7
20260509100804 22 0 0.0 0.0 0.00 0.00 0.00 1 1011.6
20260509100704 22 0 0.0 0.0 0.00 0.00 0.00 1 1011.6
20260509100624 22 0 0.0 0.0 0.00 0.00 0.00 1 1011.5
20260509100524 22 0 0.0 0.0 0.00 0.00 0.00 1 1011.5
20260509100404 22 0 0.0 0.0 0.00 0.00 0.00 1 1011.4
20260509100304 22 0 0.0 0.0 0.00 0.00 0.00 1 1011.4
20260509100225 22 0 0.0 0.0 0.00 0.00 0.00 1 1011.3
20260509100103 22 0 0.0 0.0 0.00 0.00 0.00 1 1011.3
20260509100004 22 0 0.0 0.0 0.00 0.00 0.00 1 1011.3
20260509095903 22 0 0.0 0.0 0.00 0.00 0.00 1 1011.2
20260509095803 22 0 0.0 0.0 0.00 0.00 0.00 1 1011.1
20260509095725 22 0 0.0 0.0 0.00 0.00 0.00 1 1011.1
20260509095603 22 0 0.0 0.0 0.00 0.00 0.00 1 1011.1
20260509095504 22 0 0.0 0.0 0.00 0.00 0.00 1 1011.1
20260509095404 22 0 0.0 0.0 0.00 0.00 0.00 1 1011.0
20260509095325 22 0 0.0 0.0 0.00 0.00 0.00 1 1011.0
20260509095225 22 0 0.0 0.0 0.00 0.00 0.00 1 1011.0
20260509095104 22 0 0.0 0.0 0.00 0.00 0.00 1 1011.0
20260509095025 22 0 0.0 0.0 0.00 0.00 0.00 1 1010.9
20260509094904 22 0 0.0 0.0 0.00 0.00 0.00 1 1010.9
20260509094804 22 0 0.0 0.0 0.00 0.00 0.00 1 1010.9
20260509094703 22 0 0.0 0.0 0.00 0.00 0.00 1 1010.8
20260509094604 22 0 0.0 0.0 0.00 0.00 0.00 1 1010.7
20260509094504 22 0 0.0 0.0 0.00 0.00 0.00 1 1010.7
20260509094404 22 0 0.0 0.0 0.00 0.00 0.00 1 1010.6
20260509094303 22 0 0.0 0.0 0.00 0.00 0.00 1 1010.6
20260509094204 22 0 0.0 0.0 0.00 0.00 0.00 1 1010.6
20260509094103 22 0 0.0 0.0 0.00 0.00 0.00 1 1010.5
20260509094004 22 0 0.0 0.0 0.00 0.00 0.00 1 1010.5
20260509093904 22 0 0.0 0.0 0.00 0.00 0.00 1 1010.5
20260509093825 22 0 0.0 0.0 0.00 0.00 0.00 1 1010.5
20260509093704 22 0 0.0 0.0 0.00 0.00 0.00 1 1010.5
20260509093604 22 0 0.0 0.0 0.00 0.00 0.00 1 1010.5
20260509093504 22 0 0.0 0.0 0.00 0.00 0.00 1 1010.6
20260509093403 22 0 0.0 0.0 0.00 0.00 0.00 1 1010.5
20260509093303 22 0 0.0 0.0 0.00 0.00 0.00 1 1010.4
20260509093204 22 0 0.0 0.0 0.00 0.00 0.00 1 1010.4
20260509093104 22 0 0.0 0.0 0.00 0.00 0.00 1 1010.4
20260509093003 22 0 0.0 0.0 0.00 0.00 0.00 1 1010.4
20260509092904 22 0 0.0 0.0 0.00 0.00 0.00 1 1010.4
20260509092824 22 0 0.0 0.0 0.00 0.00 0.00 1 1010.4
20260509092704 22 0 0.0 0.0 0.00 0.00 0.00 1 1010.4
20260509092603 22 0 0.0 0.0 0.00 0.00 0.00 1 1010.4
20260509092504 22 0 0.0 0.0 0.00 0.00 0.00 1 1010.4
20260509092403 22 0 0.0 0.0 0.00 0.00 0.00 1 1010.4
20260509092305 22 0 0.0 0.0 0.00 0.00 0.00 1 1010.4
20260509092204 22 0 0.0 0.0 0.00 0.00 0.00 1 1010.3
20260509092103 22 0 0.0 0.0 0.00 0.00 0.00 1 1010.4
20260509092004 22 0 0.0 0.0 0.00 0.00 0.00 1 1010.3
20260509091925 22 0 0.0 0.0 0.00 0.00 0.00 1 1010.3
20260509091804 22 0 0.0 0.0 0.00 0.00 0.00 1 1010.4
20260509091704 22 0 0.0 0.0 0.00 0.00 0.00 1 1010.3
20260509091604 22 0 0.0 0.0 0.00 0.00 0.00 1 1010.4
20260509091504 22 0 0.0 0.0 0.00 0.00 0.00 1 1010.3
20260509091404 22 0 0.0 0.0 0.00 0.00 0.00 1 1010.4
20260509091325 22 0 0.0 0.0 0.00 0.00 0.00 1 1010.4
20260509091203 22 0 0.0 0.0 0.00 0.00 0.00 1 1010.4
20260509091103 22 0 0.0 0.0 0.00 0.00 0.00 1 1010.4
20260509091025 22 0 0.0 0.0 0.00 0.00 0.00 1 1010.4
20260509090924 22 0 0.0 0.0 0.00 0.00 0.00 1 1010.5
20260509090804 22 0 0.0 0.0 0.00 0.00 0.00 1 1010.4
20260509090704 22 0 0.0 0.0 0.00 0.00 0.00 1 1010.4
20260509090625 22 0 0.0 0.0 0.00 0.00 0.00 1 1010.4
20260509090525 22 0 0.0 0.0 0.00 0.00 0.00 1 1010.4
20260509090404 22 0 0.0 0.0 0.00 0.00 0.00 1 1010.4
20260509090324 22 0 0.0 0.0 0.00 0.00 0.00 1 1010.4
20260509090203 22 0 0.0 0.0 0.00 0.00 0.00 1 1010.5
20260509090125 22 0 0.0 0.0 0.00 0.00 0.00 1 1010.5
20260509090004 22 0 0.0 0.0 0.00 0.00 0.00 1 1010.4
20260509085925 22 0 0.0 0.0 0.00 0.00 0.00 1 1010.4
20260509085803 22 0 0.0 0.0 0.00 0.00 0.00 1 1010.4
20260509085703 22 0 0.0 0.0 0.00 0.00 0.00 1 1010.4
20260509085603 22 0 0.0 0.0 0.00 0.00 0.00 1 1010.5
20260509085504 22 0 0.0 0.0 0.00 0.00 0.00 1 1010.5
20260509085425 22 0 0.0 0.0 0.00 0.00 0.00 1 1010.5
20260509085306 22 0 0.0 0.0 0.00 0.00 0.00 1 1010.6
20260509085203 22 0 0.0 0.0 0.00 0.00 0.00 1 1010.6
20260509085104 22 0 0.0 0.0 0.00 0.00 0.00 1 1010.6
20260509085003 22 0 0.0 0.0 0.00 0.00 0.00 1 1010.5
20260509084904 22 0 0.0 0.0 0.00 0.00 0.00 1 1010.5
20260509084804 22 0 0.0 0.0 0.00 0.00 0.00 1 1010.5
20260509084704 22 0 0.0 0.0 0.00 0.00 0.00 1 1010.5
20260509084604 22 0 0.0 0.0 0.00 0.00 0.00 1 1010.6
20260509084503 22 0 0.0 0.0 0.00 0.00 0.00 1 1010.5
20260509084404 22 0 0.0 0.0 0.00 0.00 0.00 1 1010.5
20260509084303 22 0 0.0 0.0 0.00 0.00 0.00 1 1010.6
20260509084225 22 0 0.0 0.0 0.00 0.00 0.00 1 1010.6
20260509084104 22 0 0.0 0.0 0.00 0.00 0.00 1 1010.6
20260509084025 22 0 0.0 0.0 0.00 0.00 0.00 1 1010.7
20260509083904 22 0 0.0 0.0 0.00 0.00 0.00 1 1010.7
20260509083804 22 0 0.0 0.0 0.00 0.00 0.00 1 1010.7
20260509083724 22 0 0.0 0.0 0.00 0.00 0.00 1 1010.6
20260509083625 22 0 0.0 0.0 0.00 0.00 0.00 1 1010.7
20260509083504 22 0 0.0 0.0 0.00 0.00 0.00 1 1010.8
20260509083403 22 0 0.0 0.0 0.00 0.00 0.00 1 1010.9
20260509083304 22 0 0.0 0.0 0.00 0.00 0.00 1 1010.9
20260509083204 22 0 0.0 0.0 0.00 0.00 0.00 1 1010.9
20260509083104 22 0 0.0 0.0 0.00 0.00 0.00 1 1010.9
20260509083024 22 0 0.0 0.0 0.00 0.00 0.00 1 1010.9
20260509082924 22 0 0.0 0.0 0.00 0.00 0.00 1 1011.0
20260509082803 22 0 0.0 0.0 0.00 0.00 0.00 1 1011.0
20260509082704 22 0 0.0 0.0 0.00 0.00 0.00 1 1011.1
20260509082603 22 0 0.0 0.0 0.00 0.00 0.00 1 1011.1
20260509082504 22 0 0.0 0.0 0.00 0.00 0.00 1 1011.1
20260509082425 22 0 0.0 0.0 0.00 0.00 0.00 1 1011.1
20260509082306 22 0 0.0 0.0 0.00 0.00 0.00 1 1011.2
20260509082204 22 0 0.0 0.0 0.00 0.00 0.00 1 1011.1
20260509082125 22 0 0.0 0.0 0.00 0.00 0.00 1 1011.1
20260509082004 22 0 0.0 0.0 0.00 0.00 0.00 1 1011.0
20260509081903 22 0 0.0 0.0 0.00 0.00 0.00 1 1010.9
20260509081804 22 0 0.0 0.0 0.00 0.00 0.00 1 1010.8
20260509081704 22 0 0.0 0.0 0.00 0.00 0.00 1 1010.8
20260509081604 22 0 0.0 0.0 0.00 0.00 0.00 1 1010.8
20260509081503 22 0 0.0 0.0 0.00 0.00 0.00 1 1010.8
20260509081404 22 0 0.0 0.0 0.00 0.00 0.00 1 1010.8
20260509081304 22 0 0.0 0.0 0.00 0.00 0.00 1 1010.8
20260509081203 22 0 0.0 0.0 0.00 0.00 0.00 1 1010.8
20260509081104 22 0 0.0 0.0 0.00 0.00 0.00 1 1010.8
20260509081004 22 0 0.0 0.0 0.00 0.00 0.00 1 1010.9
20260509080904 22 0 0.0 0.0 0.00 0.00 0.00 1 1010.9
20260509080804 22 0 0.0 0.0 0.00 0.00 0.00 1 1010.9
20260509080703 22 0 0.0 0.0 0.00 0.00 0.00 1 1011.0
20260509080604 22 0 0.0 0.0 0.00 0.00 0.00 1 1010.9
20260509080504 22 0 0.0 0.0 0.00 0.00 0.00 1 1011.0
20260509080403 22 0 0.0 0.0 0.00 0.00 0.00 1 1011.0
20260509080303 22 0 0.0 0.0 0.00 0.00 0.00 1 1011.0
20260509080204 22 0 0.0 0.0 0.00 0.00 0.00 1 1011.0
20260509080104 22 0 0.0 0.0 0.00 0.00 0.00 1 1011.0
20260509080004 22 0 0.0 0.0 0.00 0.00 0.00 1 1010.9
20260509075903 22 0 0.0 0.0 0.00 0.00 0.00 1 1010.9
20260509075804 22 0 0.0 0.0 0.00 0.00 0.00 1 1011.0
20260509075725 22 0 0.0 0.0 0.00 0.00 0.00 1 1011.1
20260509075603 22 0 0.0 0.0 0.00 0.00 0.00 1 1011.1
20260509075525 22 0 0.0 0.0 0.00 0.00 0.00 1 1011.1
20260509075403 22 0 0.0 0.0 0.00 0.00 0.00 1 1011.1
20260509075306 22 0 0.0 0.0 0.00 0.00 0.00 1 1011.2
20260509075204 22 0 0.0 0.0 0.00 0.00 0.00 1 1011.1
20260509075104 22 0 0.0 0.0 0.00 0.00 0.00 1 1011.2
20260509075004 22 0 0.0 0.0 0.00 0.00 0.00 1 1011.1
20260509074924 22 0 0.0 0.0 0.00 0.00 0.00 1 1011.1
20260509074804 22 0 0.0 0.0 0.00 0.00 0.00 1 1011.0
20260509074704 22 0 0.0 0.0 0.00 0.00 0.00 1 1011.0
20260509074624 22 0 0.0 0.0 0.00 0.00 0.00 1 1011.0
20260509074503 22 0 0.0 0.0 0.00 0.00 0.00 1 1011.0
20260509074424 22 0 0.0 0.0 0.00 0.00 0.00 1 1011.0
20260509074303 22 0 0.0 0.0 0.00 0.00 0.00 1 1011.1
20260509074203 22 0 0.0 0.0 0.00 0.00 0.00 1 1011.1
20260509074103 22 0 0.0 0.0 0.00 0.00 0.00 1 1011.1
20260509074004 22 0 0.0 0.0 0.00 0.00 0.00 1 1011.1
20260509073903 22 326 0.0 1.6 0.00 0.00 0.00 1 1011.1
20260509073804 22 326 0.0 1.6 0.00 0.00 0.00 1 1011.1
20260509073704 22 326 0.0 1.6 0.00 0.00 0.00 1 1011.1
20260509073604 22 326 0.0 1.6 0.00 0.00 0.00 1 1011.1
20260509073504 22 326 0.0 3.2 0.00 0.00 0.00 1 1011.2
20260509073403 22 326 1.6 3.2 0.00 0.00 0.00 1 1011.1
20260509073304 22 326 1.6 3.2 0.00 0.00 0.00 1 1011.2
20260509073203 22 326 1.6 3.2 0.00 0.00 0.00 1 1011.1
20260509073104 22 326 1.6 3.2 0.00 0.00 0.00 1 1011.2
20260509073004 22 326 1.6 3.2 0.00 0.00 0.00 1 1011.2
20260509072903 22 326 1.6 3.2 0.00 0.00 0.00 1 1011.2
20260509072804 22 326 1.6 3.2 0.00 0.00 0.00 1 1011.3
20260509072703 22 326 1.6 3.2 0.00 0.00 0.00 1 1011.3
20260509072603 22 326 0.0 3.2 0.00 0.00 0.00 1 1011.3
20260509072524 22 326 0.0 3.2 0.00 0.00 0.00 1 1011.3
20260509072403 22 326 0.0 3.2 0.00 0.00 0.00 1 1011.3
20260509072306 22 326 0.0 1.6 0.00 0.00 0.00 1 1011.3
20260509072203 22 326 0.0 1.6 0.00 0.00 0.00 1 1011.3
20260509072104 22 0 0.0 0.0 0.00 0.00 0.00 1 1011.3
20260509072003 22 326 0.0 1.6 0.00 0.00 0.00 1 1011.3
20260509071903 22 326 0.0 1.6 0.00 0.00 0.00 1 1011.4
20260509071803 22 326 0.0 1.6 0.00 0.00 0.00 1 1011.4
20260509071703 22 326 0.0 1.6 0.00 0.00 0.00 1 1011.4
20260509071604 22 326 0.0 1.6 0.00 0.00 0.00 1 1011.4
20260509071504 22 326 0.0 1.6 0.00 0.00 0.00 1 1011.3
20260509071403 22 326 0.0 1.6 0.00 0.00 0.00 1 1011.3
20260509071324 22 326 0.0 1.6 0.00 0.00 0.00 1 1011.4
20260509071204 22 326 0.0 1.6 0.00 0.00 0.00 1 1011.4
20260509071125 22 326 0.0 1.6 0.00 0.00 0.00 1 1011.4
20260509071003 22 326 0.0 1.6 0.00 0.00 0.00 1 1011.3
20260509070904 22 326 0.0 1.6 0.00 0.00 0.00 1 1011.3
20260509070804 22 326 0.0 1.6 0.00 0.00 0.00 1 1011.4
20260509070725 22 326 0.0 1.6 0.00 0.00 0.00 1 1011.4
20260509070604 22 326 0.0 1.6 0.00 0.00 0.00 1 1011.4
20260509070503 22 326 0.0 1.6 0.00 0.00 0.00 1 1011.4
20260509070403 22 326 0.0 1.6 0.00 0.00 0.00 1 1011.4
20260509070303 22 326 0.0 1.6 0.00 0.00 0.00 1 1011.4
20260509070225 22 326 0.0 1.6 0.00 0.00 0.00 1 1011.4
20260509070104 22 326 0.0 1.6 0.00 0.00 0.00 1 1011.4
20260509070003 22 326 0.0 1.6 0.00 0.00 0.00 1 1011.3
20260509065904 22 326 0.0 1.6 0.00 0.00 0.00 1 1011.3
20260509065805 22 326 0.0 1.6 0.00 0.00 0.00 1 1011.2
20260509065704 22 326 0.0 1.6 0.00 0.00 0.00 1 1011.2
20260509065603 22 0 0.0 0.0 0.00 0.00 0.00 1 1011.1
20260509065504 22 0 0.0 0.0 0.00 0.00 0.00 1 1011.1
20260509065403 22 0 0.0 0.0 0.00 0.00 0.00 1 1011.0
20260509065325 22 0 0.0 0.0 0.00 0.00 0.00 1 1011.0
20260509065203 22 0 0.0 0.0 0.00 0.00 0.00 1 1011.0
20260509065104 22 0 0.0 0.0 0.00 0.00 0.00 1 1010.9
20260509065025 22 0 0.0 0.0 0.00 0.00 0.00 1 1010.9
20260509064904 22 0 0.0 0.0 0.00 0.00 0.00 1 1010.9
20260509064803 22 0 0.0 0.0 0.00 0.00 0.00 1 1010.9
20260509064703 22 0 0.0 0.0 0.00 0.00 0.00 1 1011.0
20260509064603 22 0 0.0 0.0 0.00 0.00 0.00 1 1010.9
20260509064503 22 326 0.0 1.6 0.00 0.00 0.00 1 1010.9
20260509064424 22 326 0.0 3.2 0.00 0.00 0.00 1 1010.9
20260509064304 22 326 0.0 3.2 0.00 0.00 0.00 1 1010.9
20260509064203 22 326 1.6 6.4 0.00 0.00 0.00 1 1010.9
20260509064104 22 330 1.6 9.7 0.00 0.00 0.00 1 1010.9
20260509064004 22 330 1.6 9.7 0.00 0.00 0.00 1 1010.9
20260509063904 22 329 1.6 9.7 0.00 0.00 0.00 1 1010.9
20260509063825 22 325 3.2 9.7 0.00 0.00 0.00 1 1011.0
20260509063704 22 321 3.2 9.7 0.00 0.00 0.00 1 1011.0
20260509063604 22 320 3.2 9.7 0.00 0.00 0.00 1 1011.1
20260509063504 22 318 3.2 9.7 0.00 0.00 0.00 1 1011.1
20260509063404 22 315 3.2 9.7 0.00 0.00 0.00 1 1011.1
20260509063304 22 311 3.2 9.7 0.00 0.00 0.00 1 1011.1
20260509063204 22 306 3.2 9.7 0.00 0.00 0.00 1 1011.2
20260509063103 22 300 3.2 8.0 0.00 0.00 0.00 1 1011.1
20260509063004 22 300 3.2 8.0 0.00 0.00 0.00 1 1011.1
20260509062903 22 301 3.2 8.0 0.00 0.00 0.00 1 1011.1
20260509062804 22 304 3.2 8.0 0.00 0.00 0.00 1 1011.1
20260509062704 22 306 3.2 8.0 0.00 0.00 0.00 1 1011.0
20260509062604 22 307 3.2 8.0 0.00 0.00 0.00 1 1011.0
20260509062504 22 308 3.2 8.0 0.00 0.00 0.00 1 1011.0
20260509062404 22 310 3.2 8.0 0.00 0.00 0.00 1 1011.0
20260509062306 22 313 3.2 12.9 0.00 0.00 0.00 1 1010.9
20260509062204 22 321 3.2 12.9 0.00 0.00 0.00 1 1010.9
20260509062103 22 324 3.2 12.9 0.00 0.00 0.00 1 1010.8
20260509062004 22 325 4.8 12.9 0.00 0.00 0.00 1 1010.7
20260509061924 22 326 4.8 12.9 0.00 0.00 0.00 1 1010.8
20260509061804 22 329 4.8 12.9 0.00 0.00 0.00 1 1010.8
20260509061703 22 333 4.8 12.9 0.00 0.00 0.00 1 1010.8
20260509061603 22 338 4.8 12.9 0.00 0.00 0.00 1 1010.7
20260509061504 22 344 4.8 12.9 0.00 0.00 0.00 1 1010.8
20260509061404 22 349 4.8 12.9 0.00 0.00 0.00 1 1010.8
20260509061325 22 349 4.8 12.9 0.00 0.00 0.00 1 1010.8
20260509061224 22 356 4.8 12.9 0.00 0.00 0.00 1 1010.7
20260509061103 22 5 4.8 12.9 0.00 0.00 0.00 1 1010.8
20260509061004 22 16 4.8 12.9 0.00 0.00 0.00 1 1010.7
20260509060904 22 21 4.8 12.9 0.00 0.00 0.00 1 1010.7
20260509060824 22 23 4.8 12.9 0.00 0.00 0.00 1 1010.7
20260509060704 22 25 6.4 12.9 0.00 0.00 0.00 1 1010.6
20260509060603 22 25 6.4 12.9 0.00 0.00 0.00 1 1010.6
20260509060504 22 28 6.4 12.9 0.00 0.00 0.00 1 1010.6
20260509060404 22 29 4.8 12.9 0.00 0.00 0.00 1 1010.6
20260509060303 22 34 4.8 12.9 0.00 0.00 0.00 1 1010.6
20260509060204 22 33 4.8 12.9 0.00 0.00 0.00 1 1010.6
20260509060104 22 32 4.8 12.9 0.00 0.00 0.00 1 1010.6
20260509060005 22 33 4.8 12.9 0.00 0.00 0.00 1 1010.6
20260509055903 22 35 3.2 12.9 0.00 0.00 0.00 1 1010.7
20260509055804 22 37 4.8 11.3 0.00 0.00 0.00 1 1010.7
20260509055725 22 34 4.8 12.9 0.00 0.00 0.00 1 1010.7
20260509055603 22 35 4.8 12.9 0.00 0.00 0.00 1 1010.7
20260509055504 22 35 4.8 12.9 0.00 0.00 0.00 1 1010.8
20260509055424 22 34 4.8 12.9 0.00 0.00 0.00 1 1010.8
20260509055306 22 26 6.4 14.5 0.00 0.00 0.00 1 1010.7
20260509055204 22 26 6.4 14.5 0.00 0.00 0.00 1 1010.7
20260509055103 22 23 8.0 14.5 0.00 0.00 0.00 1 1010.7
20260509055003 23 15 8.0 19.3 0.00 0.00 0.00 1 1010.8
20260509054904 23 15 8.0 19.3 0.00 0.00 0.00 1 1010.8
20260509054803 23 12 8.0 19.3 0.00 0.00 0.00 1 1010.9
20260509054704 23 11 8.0 19.3 0.00 0.00 0.00 1 1010.9
20260509054604 23 10 8.0 19.3 0.00 0.00 0.00 1 1010.8
20260509054503 23 5 8.0 19.3 0.00 0.00 0.00 1 1010.8
20260509054403 23 358 8.0 19.3 0.00 0.00 0.00 1 1010.7
20260509054303 23 3 8.0 19.3 0.00 0.00 0.00 1 1010.6
20260509054204 23 5 6.4 19.3 0.00 0.00 0.00 1 1010.7
20260509054103 23 8 6.4 19.3 0.00 0.00 0.00 1 1010.5
20260509054004 23 17 6.4 12.9 0.00 0.00 0.00 1 1010.4
20260509053904 23 18 4.8 11.3 0.00 0.00 0.00 1 1010.4
20260509053803 23 20 4.8 11.3 0.00 0.00 0.00 1 1010.4
20260509053703 23 23 4.8 11.3 0.00 0.00 0.00 1 1010.3
20260509053603 23 23 4.8 11.3 0.00 0.00 0.00 1 1010.3
20260509053504 23 27 4.8 9.7 0.00 0.00 0.00 1 1010.3
20260509053404 23 35 4.8 9.7 0.00 0.00 0.00 1 1010.2
20260509053303 23 33 4.8 11.3 0.00 0.00 0.00 1 1010.2
20260509053225 23 29 4.8 11.3 0.00 0.00 0.00 1 1010.2
20260509053104 23 22 4.8 11.3 0.00 0.00 0.00 1 1010.2
20260509053024 23 20 4.8 11.3 0.00 0.00 0.00 1 1010.1
20260509052904 23 12 4.8 11.3 0.00 0.00 0.00 1 1010.1
20260509052804 23 9 4.8 11.3 0.00 0.00 0.00 1 1010.1
20260509052724 23 7 4.8 11.3 0.00 0.00 0.00 1 1010.1
20260509052603 23 4 4.8 11.3 0.00 0.00 0.00 1 1010.1
20260509052503 23 360 4.8 11.3 0.00 0.00 0.00 1 1010.1
20260509052403 23 358 4.8 11.3 0.00 0.00 0.00 1 1010.2
20260509052306 23 355 3.2 11.3 0.00 0.00 0.00 1 1010.1
20260509052203 23 357 3.2 8.0 0.00 0.00 0.00 1 1010.2
20260509052104 23 358 3.2 8.0 0.00 0.00 0.00 1 1010.1
20260509052003 23 360 3.2 8.0 0.00 0.00 0.00 1 1010.1
20260509051904 23 2 3.2 8.0 0.00 0.00 0.00 1 1010.1
20260509051804 23 2 3.2 8.0 0.00 0.00 0.00 1 1010.1
20260509051725 23 2 3.2 8.0 0.00 0.00 0.00 1 1010.1
20260509051603 23 2 3.2 8.0 0.00 0.00 0.00 1 1010.0
20260509051503 23 2 3.2 8.0 0.00 0.00 0.00 1 1010.1
20260509051403 23 1 3.2 8.0 0.00 0.00 0.00 1 1010.1
20260509051303 23 1 3.2 8.0 0.00 0.00 0.00 1 1010.1
20260509051204 23 1 3.2 8.0 0.00 0.00 0.00 1 1010.1
20260509051103 23 360 3.2 8.0 0.00 0.00 0.00 1 1010.0
20260509051004 23 360 3.2 8.0 0.00 0.00 0.00 1 1010.0
20260509050903 23 357 4.8 9.7 0.00 0.00 0.00 1 1010.0
20260509050804 23 355 3.2 9.7 0.00 0.00 0.00 1 1010.0
20260509050724 23 355 3.2 9.7 0.00 0.00 0.00 1 1010.0
20260509050603 23 352 3.2 9.7 0.00 0.00 0.00 1 1010.0
20260509050525 23 351 3.2 9.7 0.00 0.00 0.00 1 1010.0
20260509050404 23 349 3.2 9.7 0.00 0.00 0.00 1 1010.0
20260509050324 23 347 3.2 9.7 0.00 0.00 0.00 1 1010.0
20260509050203 23 346 3.2 9.7 0.00 0.00 0.00 1 1010.0
20260509050003 23 342 3.2 9.7 0.00 0.00 0.00 1 1010.0
20260509045903 23 343 3.2 8.0 0.00 0.00 0.00 1 1010.0
20260509045803 23 344 3.2 8.0 0.00 0.00 0.00 1 1010.0
20260509045704 23 345 3.2 8.0 0.00 0.00 0.00 1 1010.0
20260509045603 23 345 3.2 8.0 0.00 0.00 0.00 1 1010.0
20260509045503 23 347 3.2 8.0 0.00 0.00 0.00 1 1010.0
20260509045404 23 347 3.2 8.0 0.00 0.00 0.00 1 1010.0
20260509045306 23 348 3.2 8.0 0.00 0.00 0.00 1 1010.0
20260509045225 23 348 3.2 8.0 0.00 0.00 0.00 1 1010.0
20260509045125 23 349 3.2 8.0 0.00 0.00 0.00 1 1010.0
20260509045004 23 350 3.2 8.0 0.00 0.00 0.00 1 1010.0
20260509044904 23 350 1.6 8.0 0.00 0.00 0.00 1 1010.1
20260509044804 23 350 3.2 8.0 0.00 0.00 0.00 1 1010.0
20260509044724 23 351 3.2 8.0 0.00 0.00 0.00 1 1010.1
20260509044603 23 351 3.2 8.0 0.00 0.00 0.00 1 1010.1
20260509044504 23 351 3.2 8.0 0.00 0.00 0.00 1 1010.1
20260509044403 23 351 3.2 8.0 0.00 0.00 0.00 1 1010.1
20260509044304 23 351 3.2 8.0 0.00 0.00 0.00 1 1010.1
20260509044224 23 351 3.2 8.0 0.00 0.00 0.00 1 1010.1
20260509044103 23 352 3.2 8.0 0.00 0.00 0.00 1 1010.1
20260509044024 23 353 3.2 8.0 0.00 0.00 0.00 1 1010.1
20260509043904 23 353 3.2 8.0 0.00 0.00 0.00 1 1010.2
20260509043803 23 354 3.2 8.0 0.00 0.00 0.00 1 1010.2
20260509043703 23 354 3.2 8.0 0.00 0.00 0.00 1 1010.2
20260509043604 23 355 3.2 8.0 0.00 0.00 0.00 1 1010.2
20260509043504 23 355 3.2 8.0 0.00 0.00 0.00 1 1010.3
20260509043404 23 356 3.2 8.0 0.00 0.00 0.00 1 1010.2
20260509043303 23 356 3.2 8.0 0.00 0.00 0.00 1 1010.2
20260509043224 23 357 1.6 8.0 0.00 0.00 0.00 1 1010.3
20260509043104 23 358 1.6 6.4 0.00 0.00 0.00 1 1010.3
20260509043004 23 358 1.6 6.4 0.00 0.00 0.00 1 1010.2
20260509042924 23 358 3.2 6.4 0.00 0.00 0.00 1 1010.3
20260509042803 23 358 3.2 6.4 0.00 0.00 0.00 1 1010.2
20260509042704 23 359 3.2 9.7 0.00 0.00 0.00 1 1010.3
20260509042604 23 359 3.2 9.7 0.00 0.00 0.00 1 1010.3
20260509042504 23 360 3.2 9.7 0.00 0.00 0.00 1 1010.3
20260509042404 23 2 4.8 9.7 0.00 0.00 0.00 1 1010.3
20260509042306 23 5 4.8 9.7 0.00 0.00 0.00 1 1010.3
20260509042203 23 7 4.8 9.7 0.00 0.00 0.00 1 1010.4
20260509042104 23 9 4.8 9.7 0.00 0.00 0.00 1 1010.4
20260509042004 23 13 4.8 9.7 0.00 0.00 0.00 1 1010.4
20260509041903 23 17 4.8 9.7 0.00 0.00 0.00 1 1010.4
20260509041803 23 21 3.2 9.7 0.00 0.00 0.00 1 1010.4
20260509041703 23 26 3.2 8.0 0.00 0.00 0.00 1 1010.4
20260509041603 23 29 3.2 8.0 0.00 0.00 0.00 1 1010.4
20260509041503 23 33 3.2 8.0 0.00 0.00 0.00 1 1010.4
20260509041403 23 38 3.2 8.0 0.00 0.00 0.00 1 1010.4
20260509041304 23 39 3.2 6.4 0.00 0.00 0.00 1 1010.4
20260509041203 23 39 3.2 6.4 0.00 0.00 0.00 1 1010.5
20260509041124 23 39 3.2 6.4 0.00 0.00 0.00 1 1010.4
20260509041004 23 39 3.2 6.4 0.00 0.00 0.00 1 1010.4
20260509040924 23 40 3.2 6.4 0.00 0.00 0.00 1 1010.5
20260509040804 23 40 3.2 6.4 0.00 0.00 0.00 1 1010.5
20260509040704 23 40 3.2 6.4 0.00 0.00 0.00 1 1010.5
20260509040603 23 40 3.2 6.4 0.00 0.00 0.00 1 1010.5
20260509040504 23 40 3.2 6.4 0.00 0.00 0.00 1 1010.5
20260509040425 23 40 3.2 6.4 0.00 0.00 0.00 1 1010.5
20260509040304 23 40 1.6 6.4 0.00 0.00 0.00 1 1010.5
20260509040224 23 40 3.2 6.4 0.00 0.00 0.00 1 1010.5
20260509040124 23 40 3.2 6.4 0.00 0.00 0.00 1 1010.5
20260509040004 23 40 3.2 6.4 0.00 0.00 0.00 1 1010.4
20260509035924 23 40 3.2 6.4 0.00 0.00 0.00 1 1010.5
20260509035804 23 40 3.2 6.4 0.00 0.00 0.00 1 1010.4
20260509035704 23 40 3.2 6.4 0.00 0.00 0.00 1 1010.4
20260509035603 23 40 3.2 6.4 0.00 0.00 0.00 1 1010.4
20260509035503 23 40 3.2 6.4 0.00 0.00 0.00 1 1010.4
20260509035404 23 40 3.2 6.4 0.00 0.00 0.00 1 1010.3
20260509035306 23 40 3.2 6.4 0.00 0.00 0.00 1 1010.2
20260509035203 23 40 3.2 6.4 0.00 0.00 0.00 1 1010.2
20260509035104 23 40 3.2 6.4 0.00 0.00 0.00 1 1010.2
20260509035003 23 40 3.2 8.0 0.00 0.00 0.00 1 1010.2
20260509034924 23 39 3.2 8.0 0.00 0.00 0.00 1 1010.2
20260509034803 23 39 3.2 8.0 0.00 0.00 0.00 1 1010.2
20260509034703 23 38 3.2 8.0 0.00 0.00 0.00 1 1010.2
20260509034625 23 38 3.2 8.0 0.00 0.00 0.00 1 1010.2
20260509034503 23 37 3.2 8.0 0.00 0.00 0.00 1 1010.2
20260509034403 23 33 3.2 9.7 0.00 0.00 0.00 1 1010.2
20260509034304 23 26 3.2 9.7 0.00 0.00 0.00 1 1010.2
20260509034204 23 21 3.2 9.7 0.00 0.00 0.00 1 1010.1
20260509034103 23 16 3.2 9.7 0.00 0.00 0.00 1 1010.1
20260509034004 23 7 3.2 9.7 0.00 0.00 0.00 1 1010.1
20260509033924 23 4 3.2 9.7 0.00 0.00 0.00 1 1010.1
20260509033803 23 354 3.2 9.7 0.00 0.00 0.00 1 1010.1
20260509033703 23 344 3.2 9.7 0.00 0.00 0.00 1 1010.0
20260509033624 23 341 3.2 9.7 0.00 0.00 0.00 1 1010.1
20260509033503 23 329 3.2 9.7 0.00 0.00 0.00 1 1010.1
20260509033403 23 322 3.2 8.0 0.00 0.00 0.00 1 1010.0
20260509033304 23 320 3.2 6.4 0.00 0.00 0.00 1 1010.1
20260509033203 23 320 3.2 6.4 0.00 0.00 0.00 1 1010.0
20260509033103 23 319 3.2 6.4 0.00 0.00 0.00 1 1010.0
20260509033003 23 317 3.2 6.4 0.00 0.00 0.00 1 1010.0
20260509032904 23 317 3.2 6.4 0.00 0.00 0.00 1 1010.0
20260509032804 23 316 3.2 6.4 0.00 0.00 0.00 1 1010.0
20260509032703 23 316 3.2 6.4 0.00 0.00 0.00 1 1010.0
20260509032603 23 316 1.6 6.4 0.00 0.00 0.00 1 1010.0
20260509032503 23 316 1.6 6.4 0.00 0.00 0.00 1 1010.0
20260509032403 23 316 1.6 6.4 0.00 0.00 0.00 1 1010.0
20260509032306 23 316 1.6 6.4 0.00 0.00 0.00 1 1010.0
20260509032203 23 316 1.6 6.4 0.00 0.00 0.00 1 1010.0
20260509032103 23 316 1.6 6.4 0.00 0.00 0.00 1 1010.0
20260509032025 23 316 1.6 6.4 0.00 0.00 0.00 1 1010.0
20260509031903 23 316 1.6 6.4 0.00 0.00 0.00 1 1010.0
20260509031803 23 316 1.6 6.4 0.00 0.00 0.00 1 1010.0
20260509031704 23 316 1.6 6.4 0.00 0.00 0.00 1 1010.0
20260509031603 23 316 1.6 4.8 0.00 0.00 0.00 1 1010.0
20260509031524 23 316 1.6 4.8 0.00 0.00 0.00 1 1010.0
20260509031403 23 316 1.6 4.8 0.00 0.00 0.00 1 1010.0
20260509031325 23 316 1.6 4.8 0.00 0.00 0.00 1 1010.1
20260509031203 23 316 1.6 4.8 0.00 0.00 0.00 1 1010.0
20260509031104 23 316 1.6 4.8 0.00 0.00 0.00 1 1010.0
20260509031004 23 316 1.6 3.2 0.00 0.00 0.00 1 1010.0
20260509030903 23 316 1.6 3.2 0.00 0.00 0.00 1 1010.0
20260509030803 23 316 1.6 3.2 0.00 0.00 0.00 1 1010.0
20260509030703 23 316 1.6 3.2 0.00 0.00 0.00 1 1010.0
20260509030603 23 316 1.6 3.2 0.00 0.00 0.00 1 1010.0
20260509030503 23 316 1.6 3.2 0.00 0.00 0.00 1 1010.1
20260509030425 23 316 1.6 3.2 0.00 0.00 0.00 1 1010.0
20260509030303 23 316 0.0 3.2 0.00 0.00 0.00 1 1010.0
20260509030203 23 316 0.0 3.2 0.00 0.00 0.00 1 1010.1
20260509030003 23 316 0.0 3.2 0.00 0.00 0.00 1 1010.1
20260509025903 23 316 1.6 3.2 0.00 0.00 0.00 1 1010.1
20260509025825 23 316 1.6 3.2 0.00 0.00 0.00 1 1010.0
20260509025704 23 316 1.6 3.2 0.00 0.00 0.00 1 1010.0
20260509025604 23 316 1.6 3.2 0.00 0.00 0.00 1 1010.0
20260509025503 23 316 1.6 3.2 0.00 0.00 0.00 1 1010.0
20260509025404 23 316 0.0 3.2 0.00 0.00 0.00 1 1010.0
20260509025306 23 316 1.6 3.2 0.00 0.00 0.00 1 1010.0
20260509025203 23 316 1.6 3.2 0.00 0.00 0.00 1 1010.0
20260509025104 23 316 1.6 3.2 0.00 0.00 0.00 1 1009.9
20260509025025 23 316 1.6 6.4 0.00 0.00 0.00 1 1010.0
20260509024903 23 315 1.6 6.4 0.00 0.00 0.00 1 1009.9
20260509024825 24 315 1.6 6.4 0.00 0.00 0.00 1 1009.9
20260509024725 24 315 1.6 6.4 0.00 0.00 0.00 1 1009.9
20260509024603 24 315 1.6 6.4 0.00 0.00 0.00 1 1009.9
20260509024503 24 315 1.6 6.4 0.00 0.00 0.00 1 1009.9
20260509024403 24 315 1.6 6.4 0.00 0.00 0.00 1 1009.8
20260509024303 24 315 1.6 6.4 0.00 0.00 0.00 1 1009.8
20260509024204 24 315 1.6 6.4 0.00 0.00 0.00 1 1009.8
20260509024103 24 314 1.6 6.4 0.00 0.00 0.00 1 1009.7
20260509024003 24 314 1.6 4.8 0.00 0.00 0.00 1 1009.7
20260509023903 24 314 1.6 4.8 0.00 0.00 0.00 1 1009.7
20260509023803 24 315 1.6 8.0 0.00 0.00 0.00 1 1009.8
20260509023704 24 316 1.6 8.0 0.00 0.00 0.00 1 1009.7
20260509023603 24 316 3.2 8.0 0.00 0.00 0.00 1 1009.8
20260509023503 24 317 3.2 8.0 0.00 0.00 0.00 1 1009.7
20260509023403 24 318 3.2 8.0 0.00 0.00 0.00 1 1009.7
20260509023303 24 318 3.2 8.0 0.00 0.00 0.00 1 1009.7
20260509023203 24 319 3.2 8.0 0.00 0.00 0.00 1 1009.7
20260509023104 24 319 3.2 8.0 0.00 0.00 0.00 1 1009.7
20260509023025 24 320 3.2 8.0 0.00 0.00 0.00 1 1009.6
20260509022924 24 320 3.2 8.0 0.00 0.00 0.00 1 1009.6
20260509022803 24 322 3.2 6.4 0.00 0.00 0.00 1 1009.6
20260509022704 24 322 3.2 6.4 0.00 0.00 0.00 1 1009.6
20260509022603 24 322 1.6 6.4 0.00 0.00 0.00 1 1009.5
20260509022525 24 322 1.6 6.4 0.00 0.00 0.00 1 1009.5
20260509022403 24 321 1.6 6.4 0.00 0.00 0.00 1 1009.5
20260509022306 24 321 1.6 6.4 0.00 0.00 0.00 1 1009.5
20260509022204 24 321 1.6 6.4 0.00 0.00 0.00 1 1009.5
20260509022103 24 320 1.6 6.4 0.00 0.00 0.00 1 1009.5
20260509022003 24 320 1.6 6.4 0.00 0.00 0.00 1 1009.6
20260509021904 24 320 1.6 6.4 0.00 0.00 0.00 1 1009.5
20260509021804 24 319 1.6 6.4 0.00 0.00 0.00 1 1009.5
20260509021704 24 319 1.6 6.4 0.00 0.00 0.00 1 1009.5
20260509021603 24 319 1.6 6.4 0.00 0.00 0.00 1 1009.5
20260509021525 24 319 1.6 6.4 0.00 0.00 0.00 1 1009.5
20260509021403 24 319 1.6 6.4 0.00 0.00 0.00 1 1009.4
20260509021304 24 319 1.6 6.4 0.00 0.00 0.00 1 1009.5
20260509021224 24 319 1.6 6.4 0.00 0.00 0.00 1 1009.4
20260509021104 24 319 1.6 6.4 0.00 0.00 0.00 1 1009.4
20260509021003 24 319 1.6 6.4 0.00 0.00 0.00 1 1009.4
20260509020904 24 319 1.6 11.3 0.00 0.00 0.00 1 1009.4
20260509020803 24 319 1.6 11.3 0.00 0.00 0.00 1 1009.3
20260509020703 24 319 1.6 11.3 0.00 0.00 0.00 1 1009.3
20260509020603 25 319 3.2 11.3 0.00 0.00 0.00 1 1009.4
20260509020525 25 319 3.2 11.3 0.00 0.00 0.00 1 1009.4
20260509020403 25 320 3.2 11.3 0.00 0.00 0.00 1 1009.3
20260509020304 25 321 3.2 11.3 0.00 0.00 0.00 1 1009.3
20260509020203 25 322 3.2 11.3 0.00 0.00 0.00 1 1009.3
20260509020124 25 322 3.2 11.3 0.00 0.00 0.00 1 1009.3
20260509020024 25 322 3.2 11.3 0.00 0.00 0.00 1 1009.3
20260509015925 25 322 4.8 11.3 0.00 0.00 0.00 1 1009.2
20260509015804 25 322 4.8 12.9 0.00 0.00 0.00 1 1009.2
20260509015724 25 323 4.8 12.9 0.00 0.00 0.00 1 1009.2
20260509015604 25 327 4.8 14.5 0.00 0.00 0.00 1 1009.1
20260509015503 25 327 6.4 14.5 0.00 0.00 0.00 1 1009.1
20260509015424 25 327 6.4 14.5 0.00 0.00 0.00 1 1009.1
20260509015306 25 326 6.4 14.5 0.00 0.00 0.00 1 1009.1
20260509015204 25 326 6.4 14.5 0.00 0.00 0.00 1 1009.2
20260509015103 25 325 6.4 14.5 0.00 0.00 0.00 1 1009.2
20260509015004 25 324 6.4 14.5 0.00 0.00 0.00 1 1009.2
20260509014904 25 327 6.4 14.5 0.00 0.00 0.00 1 1009.1
20260509014824 25 328 6.4 14.5 0.00 0.00 0.00 1 1009.2
20260509014703 25 328 6.4 14.5 0.00 0.00 0.00 1 1009.1
20260509014604 25 327 4.8 12.9 0.00 0.00 0.00 1 1009.1
20260509014524 25 329 4.8 12.9 0.00 0.00 0.00 1 1009.1
20260509014404 25 334 4.8 12.9 0.00 0.00 0.00 1 1009.2
20260509014303 25 339 4.8 12.9 0.00 0.00 0.00 1 1009.2
20260509014225 25 342 4.8 12.9 0.00 0.00 0.00 1 1009.2
20260509014103 25 347 4.8 11.3 0.00 0.00 0.00 1 1009.2
20260509014003 25 347 4.8 11.3 0.00 0.00 0.00 1 1009.2
20260509013903 25 343 4.8 11.3 0.00 0.00 0.00 1 1009.2
20260509013803 25 345 4.8 11.3 0.00 0.00 0.00 1 1009.1
20260509013704 25 348 4.8 11.3 0.00 0.00 0.00 1 1009.1
20260509013604 25 350 4.8 11.3 0.00 0.00 0.00 1 1009.2
20260509013503 25 345 4.8 11.3 0.00 0.00 0.00 1 1009.2
20260509013424 25 340 4.8 11.3 0.00 0.00 0.00 1 1009.2
20260509013304 25 326 4.8 11.3 0.00 0.00 0.00 1 1009.1
20260509013203 25 314 4.8 11.3 0.00 0.00 0.00 1 1009.1
20260509013103 25 313 4.8 11.3 0.00 0.00 0.00 1 1009.1
20260509013003 25 311 4.8 11.3 0.00 0.00 0.00 1 1009.1
20260509012903 25 307 4.8 9.7 0.00 0.00 0.00 1 1009.1
20260509012803 25 305 4.8 9.7 0.00 0.00 0.00 1 1009.1
20260509012703 25 300 4.8 9.7 0.00 0.00 0.00 1 1009.1
20260509012603 25 296 4.8 9.7 0.00 0.00 0.00 1 1009.1
20260509012503 25 299 4.8 9.7 0.00 0.00 0.00 1 1009.1
20260509012403 25 304 4.8 9.7 0.00 0.00 0.00 1 1009.1
20260509012306 25 309 3.2 9.7 0.00 0.00 0.00 1 1009.1
20260509012204 25 314 3.2 9.7 0.00 0.00 0.00 1 1009.1
20260509012103 25 316 3.2 9.7 0.00 0.00 0.00 1 1009.1
20260509012003 25 318 3.2 9.7 0.00 0.00 0.00 1 1009.2
20260509011903 25 315 3.2 9.7 0.00 0.00 0.00 1 1009.1
20260509011824 25 311 3.2 9.7 0.00 0.00 0.00 1 1009.1
20260509011704 25 305 3.2 9.7 0.00 0.00 0.00 1 1009.1
20260509011603 25 300 4.8 9.7 0.00 0.00 0.00 1 1009.1
20260509011503 25 297 4.8 9.7 0.00 0.00 0.00 1 1009.1
20260509011403 25 296 4.8 9.7 0.00 0.00 0.00 1 1009.1
20260509011304 25 294 4.8 9.7 0.00 0.00 0.00 1 1009.1
20260509011204 25 293 4.8 9.7 0.00 0.00 0.00 3 1009.2
20260509011104 25 292 4.8 9.7 0.00 0.00 0.00 3 1009.1
20260509011003 25 290 4.8 9.7 0.00 0.00 0.00 4 1009.1
20260509010903 25 294 4.8 9.7 0.00 0.00 0.00 4 1009.0
20260509010803 25 301 4.8 9.7 0.00 0.00 0.00 4 1009.1
20260509010704 25 307 4.8 9.7 0.00 0.00 0.00 5 1009.0
20260509010603 25 311 4.8 9.7 0.00 0.00 0.00 6 1009.0
20260509010503 25 315 3.2 11.3 0.00 0.00 0.00 6 1009.0
20260509010404 25 316 3.2 11.3 0.00 0.00 0.00 6 1009.0
20260509010325 25 316 4.8 11.3 0.00 0.00 0.00 6 1009.0
20260509010204 25 316 4.8 11.3 0.00 0.00 0.00 6 1009.0
20260509010103 25 314 4.8 11.3 0.00 0.00 0.00 7 1009.1
20260509010004 25 314 4.8 11.3 0.00 0.00 0.00 7 1009.1
20260509005904 25 310 4.8 11.3 0.00 0.00 0.00 7 1009.1
20260509005803 25 303 4.8 11.3 0.00 0.00 0.00 7 1009.0
20260509005703 25 300 4.8 11.3 0.00 0.00 0.00 7 1009.1
20260509005603 25 298 4.8 11.3 0.00 0.00 0.00 7 1009.0
20260509005524 25 299 4.8 11.3 0.00 0.00 0.00 6 1009.0
20260509005403 25 301 4.8 11.3 0.00 0.00 0.00 7 1009.1
20260509005306 25 302 4.8 11.3 0.00 0.00 0.00 7 1009.1
20260509005203 25 303 4.8 11.3 0.00 0.00 0.00 7 1009.0
20260509005103 25 305 4.8 11.3 0.00 0.00 0.00 6 1009.0
20260509005004 25 307 4.8 11.3 0.00 0.00 0.00 6 1009.0
20260509004903 25 313 4.8 11.3 0.00 0.00 0.00 6 1009.0
20260509004825 25 318 4.8 11.3 0.00 0.00 0.00 6 1009.0
20260509004703 25 327 4.8 11.3 0.00 0.00 0.00 6 1008.9
20260509004603 25 330 4.8 11.3 0.00 0.00 0.00 7 1008.9
20260509004525 25 333 3.2 9.7 0.00 0.00 0.00 7 1008.9
20260509004403 25 340 3.2 9.7 0.00 0.00 0.00 7 1009.0
20260509004303 26 342 4.8 11.3 0.00 0.00 0.00 8 1008.9
20260509004203 26 341 3.2 11.3 0.00 0.00 0.00 8 1008.9
20260509004103 26 341 3.2 11.3 0.00 0.00 0.00 8 1008.9
20260509004003 26 340 3.2 11.3 0.00 0.00 0.00 9 1008.9
20260509003903 26 339 3.2 11.3 0.00 0.00 0.00 9 1008.9
20260509003803 26 337 3.2 11.3 0.00 0.00 0.00 9 1008.9
20260509003703 26 334 3.2 11.3 0.00 0.00 0.00 9 1008.9
20260509003625 26 334 3.2 11.3 0.00 0.00 0.00 9 1008.9
20260509003524 26 333 3.2 11.3 0.00 0.00 0.00 10 1008.9
20260509003403 26 327 4.8 11.3 0.00 0.00 0.00 11 1008.9
20260509003303 26 317 3.2 11.3 0.00 0.00 0.00 11 1008.9
20260509003203 26 312 4.8 11.3 0.00 0.00 0.00 11 1008.9
20260509003104 26 313 4.8 11.3 0.00 0.00 0.00 11 1008.9
20260509003003 26 313 4.8 11.3 0.00 0.00 0.00 11 1008.9
20260509002903 26 314 4.8 11.3 0.00 0.00 0.00 12 1008.9
20260509002803 26 313 4.8 14.5 0.00 0.00 0.00 11 1008.9
20260509002704 26 311 4.8 14.5 0.00 0.00 0.00 12 1008.9
20260509002603 26 307 6.4 14.5 0.00 0.00 0.00 12 1008.8
20260509002503 26 304 6.4 14.5 0.00 0.00 0.00 13 1008.8
20260509002404 26 303 6.4 14.5 0.00 0.00 0.00 13 1008.9
20260509002306 26 302 6.4 14.5 0.00 0.00 0.00 13 1008.9
20260509002203 26 302 4.8 14.5 0.00 0.00 0.00 13 1008.9
20260509002103 26 298 4.8 14.5 0.00 0.00 0.00 13 1008.9
20260509002004 26 299 6.4 14.5 0.00 0.00 0.00 14 1008.8
20260509001904 26 298 4.8 14.5 0.00 0.00 0.00 14 1008.9
20260509001804 26 295 4.8 12.9 0.00 0.00 0.00 14 1008.9
20260509001703 26 296 4.8 12.9 0.00 0.00 0.00 15 1008.9
20260509001603 26 295 4.8 12.9 0.00 0.00 0.00 15 1008.9
20260509001503 26 298 4.8 12.9 0.00 0.00 0.00 16 1008.9
20260509001404 26 301 4.8 12.9 0.00 0.00 0.00 16 1008.9
20260509001303 26 302 4.8 12.9 0.00 0.00 0.00 16 1008.8
20260509001203 26 300 4.8 12.9 0.00 0.00 0.00 16 1008.8
20260509001104 26 296 4.8 12.9 0.00 0.00 0.00 16 1008.8
20260509001004 26 289 4.8 12.9 0.00 0.00 0.00 15 1008.8
20260509000903 26 282 6.4 12.9 0.00 0.00 0.00 15 1008.9
20260509000803 26 275 4.8 12.9 0.00 0.00 0.00 15 1008.8
20260509000725 26 270 4.8 12.9 0.00 0.00 0.00 15 1008.9
20260509000603 26 264 6.4 12.9 0.00 0.00 0.00 15 1008.9
20260509000503 26 259 4.8 12.9 0.00 0.00 0.00 15 1008.8
20260509000425 26 254 4.8 12.9 0.00 0.00 0.00 15 1008.8
20260509000304 26 252 4.8 12.9 0.00 0.00 0.00 15 1008.8
20260509000204 26 252 4.8 12.9 0.00 0.00 0.00 16 1008.8
20260509000103 26 252 4.8 12.9 0.00 0.00 0.00 17 1008.8
20260509000003 26 251 4.8 12.9 0.00 0.00 0.00 17 1008.8
20260508235925 26 251 4.8 12.9 0.00 0.00 0.00 18 1008.8
20260508235803 26 250 4.8 9.7 0.00 0.00 0.00 19 1008.8
20260508235703 26 251 4.8 9.7 0.00 0.00 0.00 19 1008.8
20260508235624 26 251 4.8 9.7 0.00 0.00 0.00 19 1008.8
20260508235503 26 253 4.8 11.3 0.00 0.00 0.00 20 1008.8
20260508235404 26 255 4.8 11.3 0.00 0.00 0.00 20 1008.9
20260508235325 26 256 4.8 11.3 0.00 0.00 0.00 21 1008.9
20260508235203 26 259 4.8 11.3 0.00 0.00 0.00 21 1008.9
20260508235103 26 261 4.8 11.3 0.00 0.00 0.00 21 1008.9
20260508235003 26 263 4.8 11.3 0.00 0.00 0.00 23 1009.0
20260508234903 26 267 4.8 11.3 0.00 0.00 0.00 23 1009.0
20260508234824 26 268 4.8 11.3 0.00 0.00 0.00 23 1009.0
20260508234704 26 270 4.8 11.3 0.00 0.00 0.00 23 1008.9
20260508234603 26 272 3.2 8.0 0.00 0.00 0.00 23 1009.0
20260508234503 26 274 3.2 8.0 0.00 0.00 0.00 23 1009.0
20260508234403 26 274 3.2 8.0 0.00 0.00 0.00 25 1009.0
20260508234303 26 276 3.2 8.0 0.00 0.00 0.00 25 1008.9
20260508234204 26 277 3.2 8.0 0.00 0.00 0.00 26 1009.0
20260508234104 26 278 3.2 8.0 0.00 0.00 0.00 25 1009.0
20260508234024 26 278 3.2 8.0 0.00 0.00 0.00 25 1009.0
20260508233904 26 280 3.2 8.0 0.00 0.00 0.00 26 1009.0
20260508233803 26 280 3.2 8.0 0.00 0.00 0.00 27 1009.0
20260508233703 26 281 3.2 8.0 0.00 0.00 0.00 27 1009.0
20260508233604 26 282 3.2 8.0 0.00 0.00 0.00 28 1009.0
20260508233503 26 283 3.2 8.0 0.00 0.00 0.00 28 1009.0
20260508233424 26 282 3.2 8.0 0.00 0.00 0.00 28 1009.0
20260508233303 26 281 3.2 6.4 0.00 0.00 0.00 29 1009.0
20260508233225 26 281 3.2 8.0 0.00 0.00 0.00 29 1008.9
20260508233124 26 279 3.2 8.0 0.00 0.00 0.00 29 1008.9
20260508233003 26 277 3.2 8.0 0.00 0.00 0.00 30 1008.9
20260508232903 26 276 3.2 8.0 0.00 0.00 0.00 30 1009.0
20260508232803 26 275 3.2 8.0 0.00 0.00 0.00 30 1009.0
20260508232703 26 274 4.8 8.0 0.00 0.00 0.00 31 1009.0
20260508232603 26 273 3.2 8.0 0.00 0.00 0.00 31 1009.0
20260508232503 26 271 3.2 8.0 0.00 0.00 0.00 31 1009.0
20260508232403 26 269 3.2 8.0 0.00 0.00 0.00 31 1009.0
20260508232306 26 267 3.2 8.0 0.00 0.00 0.00 30 1009.0
20260508232224 26 266 3.2 8.0 0.00 0.00 0.00 31 1009.0
20260508232103 26 265 3.2 8.0 0.00 0.00 0.00 30 1008.9
20260508232003 26 263 3.2 8.0 0.00 0.00 0.00 30 1009.0
20260508231924 26 263 3.2 8.0 0.00 0.00 0.00 30 1009.0
20260508231803 26 262 1.6 8.0 0.00 0.00 0.00 29 1008.9
20260508231704 26 260 1.6 8.0 0.00 0.00 0.00 29 1008.9
20260508231603 26 260 3.2 8.0 0.00 0.00 0.00 28 1008.8
20260508231503 26 258 1.6 8.0 0.00 0.00 0.00 28 1008.8
20260508231403 26 257 1.6 4.8 0.00 0.00 0.00 28 1008.8
20260508231304 26 258 1.6 4.8 0.00 0.00 0.00 27 1008.8
20260508231203 26 258 3.2 4.8 0.00 0.00 0.00 27 1008.8
20260508231103 26 258 1.6 4.8 0.00 0.00 0.00 28 1008.8
20260508231003 26 259 3.2 4.8 0.00 0.00 0.00 28 1008.8
20260508230903 26 259 3.2 4.8 0.00 0.00 0.00 29 1008.8
20260508230803 26 259 3.2 4.8 0.00 0.00 0.00 29 1008.8
20260508230703 26 260 3.2 4.8 0.00 0.00 0.00 29 1008.8
20260508230603 26 260 3.2 4.8 0.00 0.00 0.00 29 1008.8
20260508230503 26 261 3.2 6.4 0.00 0.00 0.00 29 1008.8
20260508230403 26 261 3.2 6.4 0.00 0.00 0.00 30 1008.8
20260508230303 26 261 3.2 6.4 0.00 0.00 0.00 30 1008.8
20260508230203 26 261 1.6 6.4 0.00 0.00 0.00 30 1008.8
20260508230104 26 261 3.2 6.4 0.00 0.00 0.00 30 1008.8
20260508230004 26 262 3.2 6.4 0.00 0.00 0.00 29 1008.8
20260508225924 26 263 3.2 6.4 0.00 0.00 0.00 29 1008.8
20260508225825 26 264 3.2 6.4 0.00 0.00 0.00 29 1008.9
20260508225703 26 265 3.2 6.4 0.00 0.00 0.00 29 1008.8
20260508225604 26 265 3.2 6.4 0.00 0.00 0.00 29 1008.8
20260508225503 26 267 3.2 6.4 0.00 0.00 0.00 28 1008.9
20260508225404 26 267 3.2 6.4 0.00 0.00 0.00 28 1008.8
20260508225306 26 267 3.2 6.4 0.00 0.00 0.00 28 1008.9
20260508225203 26 266 3.2 6.4 0.00 0.00 0.00 29 1008.9
20260508225103 26 266 3.2 8.0 0.00 0.00 0.00 29 1008.9
20260508225024 26 266 3.2 8.0 0.00 0.00 0.00 29 1008.8
20260508224903 26 265 3.2 8.0 0.00 0.00 0.00 30 1008.9
20260508224824 26 264 3.2 8.0 0.00 0.00 0.00 29 1008.8
20260508224703 26 264 3.2 9.7 0.00 0.00 0.00 29 1008.8